Wetterdaten: Freitag, 03.01.2014
Datum Zeit Temp. Aussen +5cm Feuchte Auss Luftdruck Regen Sonnenschein Regendauer UV Solar Windben
03.01.2014 00:00 5,1 C 3,3 C 92 % 1005,5 hPa 0,0 l/m 0 min 0 min 0,0 UV-I 0 W/m 5,1 km/h (1 Bft)
03.01.2014 00:02 5,1 C 3,3 C 92 % 1005,5 hPa 0,0 l/m 0 min 0 min 0,0 UV-I 0 W/m 0,0 km/h (0 Bft)
03.01.2014 00:04 5,1 C 3,3 C 92 % 1005,4 hPa 0,0 l/m 0 min 0 min 0,0 UV-I 0 W/m 2,6 km/h (1 Bft)
03.01.2014 00:06 5,1 C 3,3 C 92 % 1005,5 hPa 0,0 l/m 0 min 0 min 0,0 UV-I 0 W/m 2,6 km/h (1 Bft)
03.01.2014 00:08 5,1 C 3,3 C 92 % 1005,5 hPa 0,0 l/m 0 min 0 min 0,0 UV-I 0 W/m 5,1 km/h (1 Bft)
03.01.2014 00:10 5,1 C 3,3 C 92 % 1005,5 hPa 0,0 l/m 0 min 0 min 0,0 UV-I 0 W/m 0,0 km/h (0 Bft)
03.01.2014 00:12 5,1 C 2,8 C 92 % 1005,5 hPa 0,0 l/m 0 min 0 min 0,0 UV-I 0 W/m 5,1 km/h (1 Bft)
03.01.2014 00:14 5,0 C 2,8 C 92 % 1005,5 hPa 0,0 l/m 0 min 0 min 0,0 UV-I 0 W/m 7,7 km/h (2 Bft)
03.01.2014 00:16 5,0 C 2,8 C 92 % 1005,5 hPa 0,0 l/m 0 min 0 min 0,0 UV-I 0 W/m 10,3 km/h (2 Bft)
03.01.2014 00:18 5,0 C 2,8 C 92 % 1005,5 hPa 0,0 l/m 0 min 0 min 0,0 UV-I 0 W/m 7,7 km/h (2 Bft)
03.01.2014 00:20 4,9 C 2,8 C 92 % 1005,5 hPa 0,0 l/m 0 min 0 min 0,0 UV-I 0 W/m 7,7 km/h (2 Bft)
03.01.2014 00:22 4,9 C 2,8 C 92 % 1005,5 hPa 0,0 l/m 0 min 0 min 0,0 UV-I 0 W/m 10,3 km/h (2 Bft)
03.01.2014 00:24 4,9 C 2,8 C 92 % 1005,5 hPa 0,0 l/m 0 min 0 min 0,0 UV-I 0 W/m 12,9 km/h (3 Bft)
03.01.2014 00:26 4,9 C 2,8 C 92 % 1005,5 hPa 0,0 l/m 0 min 0 min 0,0 UV-I 0 W/m 10,3 km/h (2 Bft)
03.01.2014 00:28 4,9 C 2,8 C 92 % 1005,5 hPa 0,0 l/m 0 min 0 min 0,0 UV-I 0 W/m 10,3 km/h (2 Bft)
03.01.2014 00:30 4,8 C 2,8 C 92 % 1005,5 hPa 0,0 l/m 0 min 0 min 0,0 UV-I 0 W/m 10,3 km/h (2 Bft)
03.01.2014 00:32 4,8 C 2,8 C 92 % 1005,4 hPa 0,0 l/m 0 min 0 min 0,0 UV-I 0 W/m 10,3 km/h (2 Bft)
03.01.2014 00:34 4,8 C 2,8 C 92 % 1005,4 hPa 0,0 l/m 0 min 0 min 0,0 UV-I 0 W/m 7,7 km/h (2 Bft)
03.01.2014 00:36 4,8 C 2,8 C 92 % 1005,3 hPa 0,0 l/m 0 min 0 min 0,0 UV-I 0 W/m 7,7 km/h (2 Bft)
03.01.2014 00:38 4,8 C 2,8 C 92 % 1005,3 hPa 0,0 l/m 0 min 0 min 0,0 UV-I 0 W/m 7,7 km/h (2 Bft)
03.01.2014 00:40 4,7 C 2,8 C 92 % 1005,4 hPa 0,0 l/m 0 min 0 min 0,0 UV-I 0 W/m 7,7 km/h (2 Bft)
03.01.2014 00:42 4,7 C 2,8 C 92 % 1005,2 hPa 0,0 l/m 0 min 0 min 0,0 UV-I 0 W/m 5,1 km/h (1 Bft)
03.01.2014 00:44 4,7 C 2,8 C 92 % 1005,2 hPa 0,0 l/m 0 min 0 min 0,0 UV-I 0 W/m 15,4 km/h (3 Bft)
03.01.2014 00:46 4,7 C 2,8 C 92 % 1005,2 hPa 0,0 l/m 0 min 0 min 0,0 UV-I 0 W/m 12,9 km/h (3 Bft)
03.01.2014 00:48 4,7 C 2,8 C 92 % 1005,2 hPa 0,0 l/m 0 min 0 min 0,0 UV-I 0 W/m 12,9 km/h (3 Bft)
03.01.2014 00:50 4,7 C 2,8 C 92 % 1005,2 hPa 0,0 l/m 0 min 0 min 0,0 UV-I 0 W/m 7,7 km/h (2 Bft)
03.01.2014 00:52 4,7 C 2,8 C 92 % 1005,3 hPa 0,0 l/m 0 min 0 min 0,0 UV-I 0 W/m 12,9 km/h (3 Bft)
03.01.2014 00:54 4,6 C 2,8 C 92 % 1005,2 hPa 0,0 l/m 0 min 0 min 0,0 UV-I 0 W/m 10,3 km/h (2 Bft)
03.01.2014 00:56 4,6 C 2,8 C 92 % 1005,2 hPa 0,0 l/m 0 min 0 min 0,0 UV-I 0 W/m 7,7 km/h (2 Bft)
03.01.2014 00:58 4,6 C 2,8 C 92 % 1005,2 hPa 0,0 l/m 0 min 0 min 0,0 UV-I 0 W/m 10,3 km/h (2 Bft)
03.01.2014 01:00 4,6 C 2,8 C 92 % 1005,3 hPa 0,0 l/m 0 min 0 min 0,0 UV-I 0 W/m 12,9 km/h (3 Bft)
03.01.2014 01:02 4,6 C 2,8 C 92 % 1005,2 hPa 0,0 l/m 0 min 0 min 0,0 UV-I 0 W/m 12,9 km/h (3 Bft)
03.01.2014 01:04 4,6 C 2,8 C 92 % 1005,2 hPa 0,0 l/m 0 min 0 min 0,0 UV-I 0 W/m 12,9 km/h (3 Bft)
03.01.2014 01:06 4,6 C 2,8 C 93 % 1005,1 hPa 0,0 l/m 0 min 0 min 0,0 UV-I 0 W/m 15,4 km/h (3 Bft)
03.01.2014 01:08 4,6 C 2,8 C 93 % 1005,1 hPa 0,0 l/m 0 min 0 min 0,0 UV-I 0 W/m 10,3 km/h (2 Bft)
03.01.2014 01:10 4,5 C 2,8 C 93 % 1005,2 hPa 0,0 l/m 0 min 0 min 0,0 UV-I 0 W/m 15,4 km/h (3 Bft)
03.01.2014 01:12 4,5 C 2,8 C 93 % 1005,0 hPa 0,0 l/m 0 min 0 min 0,0 UV-I 0 W/m 10,3 km/h (2 Bft)
03.01.2014 01:14 4,5 C 2,8 C 93 % 1005,0 hPa 0,0 l/m 0 min 0 min 0,0 UV-I 0 W/m 12,9 km/h (3 Bft)
03.01.2014 01:16 4,5 C 2,8 C 93 % 1005,0 hPa 0,0 l/m 0 min 0 min 0,0 UV-I 0 W/m 15,4 km/h (3 Bft)
03.01.2014 01:18 4,5 C 2,8 C 93 % 1005,0 hPa 0,0 l/m 0 min 0 min 0,0 UV-I 0 W/m 12,9 km/h (3 Bft)
03.01.2014 01:20 4,5 C 2,8 C 93 % 1005,0 hPa 0,0 l/m 0 min 0 min 0,0 UV-I 0 W/m 12,9 km/h (3 Bft)
03.01.2014 01:22 4,5 C 2,8 C 93 % 1005,0 hPa 0,0 l/m 0 min 0 min 0,0 UV-I 0 W/m 12,9 km/h (3 Bft)
03.01.2014 01:24 4,5 C 2,8 C 93 % 1005,0 hPa 0,0 l/m 0 min 0 min 0,0 UV-I 0 W/m 12,9 km/h (3 Bft)
03.01.2014 01:26 4,5 C 2,8 C 93 % 1004,9 hPa 0,0 l/m 0 min 0 min 0,0 UV-I 0 W/m 12,9 km/h (3 Bft)
03.01.2014 01:28 4,4 C 2,8 C 93 % 1005,0 hPa 0,0 l/m 0 min 0 min 0,0 UV-I 0 W/m 12,9 km/h (3 Bft)
03.01.2014 01:30 4,5 C 2,8 C 93 % 1005,0 hPa 0,0 l/m 0 min 0 min 0,0 UV-I 0 W/m 15,4 km/h (3 Bft)
03.01.2014 01:32 4,4 C 2,8 C 93 % 1005,0 hPa 0,0 l/m 0 min 0 min 0,0 UV-I 0 W/m 15,4 km/h (3 Bft)
03.01.2014 01:34 4,5 C 2,8 C 93 % 1005,0 hPa 0,0 l/m 0 min 0 min 0,0 UV-I 0 W/m 10,3 km/h (2 Bft)
03.01.2014 01:36 4,4 C 2,8 C 93 % 1005,0 hPa 0,0 l/m 0 min 0 min 0,0 UV-I 0 W/m 12,9 km/h (3 Bft)
03.01.2014 01:38 4,4 C 2,8 C 93 % 1005,0 hPa 0,0 l/m 0 min 0 min 0,0 UV-I 0 W/m 12,9 km/h (3 Bft)
03.01.2014 01:40 4,4 C 2,8 C 93 % 1005,0 hPa 0,0 l/m 0 min 0 min 0,0 UV-I 0 W/m 15,4 km/h (3 Bft)
03.01.2014 01:42 4,4 C 2,8 C 93 % 1005,0 hPa 0,0 l/m 0 min 0 min 0,0 UV-I 0 W/m 10,3 km/h (2 Bft)
03.01.2014 01:44 4,4 C 2,8 C 93 % 1005,0 hPa 0,0 l/m 0 min 0 min 0,0 UV-I 0 W/m 18,0 km/h (3 Bft)
03.01.2014 01:46 4,5 C 2,8 C 93 % 1005,0 hPa 0,0 l/m 0 min 0 min 0,0 UV-I 0 W/m 15,4 km/h (3 Bft)
03.01.2014 01:48 4,5 C 2,8 C 93 % 1004,9 hPa 0,0 l/m 0 min 0 min 0,0 UV-I 0 W/m 15,4 km/h (3 Bft)
03.01.2014 01:50 4,5 C 2,8 C 93 % 1004,9 hPa 0,0 l/m 0 min 0 min 0,0 UV-I 0 W/m 15,4 km/h (3 Bft)
03.01.2014 01:52 4,5 C 2,8 C 93 % 1004,9 hPa 0,0 l/m 0 min 0 min 0,0 UV-I 0 W/m 18,0 km/h (3 Bft)
03.01.2014 01:54 4,5 C 2,8 C 93 % 1004,9 hPa 0,0 l/m 0 min 0 min 0,0 UV-I 0 W/m 7,7 km/h (2 Bft)
03.01.2014 01:56 4,5 C 2,8 C 93 % 1004,9 hPa 0,0 l/m 0 min 0 min 0,0 UV-I 0 W/m 15,4 km/h (3 Bft)
03.01.2014 01:58 4,5 C 2,8 C 93 % 1004,9 hPa 0,0 l/m 0 min 0 min 0,0 UV-I 0 W/m 7,7 km/h (2 Bft)
03.01.2014 02:00 4,5 C 2,8 C 93 % 1004,9 hPa 0,0 l/m 0 min 0 min 0,0 UV-I 0 W/m 18,0 km/h (3 Bft)
03.01.2014 02:02 4,5 C 2,8 C 93 % 1004,9 hPa 0,0 l/m 0 min 0 min 0,0 UV-I 0 W/m 12,9 km/h (3 Bft)
03.01.2014 02:04 4,5 C 2,8 C 93 % 1004,9 hPa 0,0 l/m 0 min 0 min 0,0 UV-I 0 W/m 15,4 km/h (3 Bft)
03.01.2014 02:06 4,5 C 2,8 C 93 % 1004,9 hPa 0,0 l/m 0 min 0 min 0,0 UV-I 0 W/m 15,4 km/h (3 Bft)
03.01.2014 02:08 4,5 C 2,8 C 93 % 1004,8 hPa 0,0 l/m 0 min 0 min 0,0 UV-I 0 W/m 18,0 km/h (3 Bft)
03.01.2014 02:10 4,5 C 2,8 C 93 % 1004,8 hPa 0,0 l/m 0 min 0 min 0,0 UV-I 0 W/m 15,4 km/h (3 Bft)
03.01.2014 02:12 4,5 C 2,8 C 93 % 1004,8 hPa 0,0 l/m 0 min 0 min 0,0 UV-I 0 W/m 12,9 km/h (3 Bft)
03.01.2014 02:14 4,5 C 2,8 C 94 % 1004,8 hPa 0,0 l/m 0 min 0 min 0,0 UV-I 0 W/m 10,3 km/h (2 Bft)
03.01.2014 02:16 4,5 C 2,8 C 94 % 1004,8 hPa 0,0 l/m 0 min 0 min 0,0 UV-I 0 W/m 10,3 km/h (2 Bft)
03.01.2014 02:18 4,5 C 2,8 C 94 % 1004,8 hPa 0,0 l/m 0 min 0 min 0,0 UV-I 0 W/m 15,4 km/h (3 Bft)
03.01.2014 02:20 4,5 C 2,8 C 94 % 1004,8 hPa 0,0 l/m 0 min 0 min 0,0 UV-I 0 W/m 12,9 km/h (3 Bft)
03.01.2014 02:22 4,6 C 2,8 C 94 % 1004,8 hPa 0,0 l/m 0 min 0 min 0,0 UV-I 0 W/m 18,0 km/h (3 Bft)
03.01.2014 02:24 4,6 C 2,8 C 94 % 1004,8 hPa 0,0 l/m 0 min 0 min 0,0 UV-I 0 W/m 12,9 km/h (3 Bft)
03.01.2014 02:26 4,6 C 2,8 C 94 % 1004,8 hPa 0,0 l/m 0 min 0 min 0,0 UV-I 0 W/m 15,4 km/h (3 Bft)
03.01.2014 02:28 4,6 C 2,8 C 94 % 1004,8 hPa 0,0 l/m 0 min 0 min 0,0 UV-I 0 W/m 18,0 km/h (3 Bft)
03.01.2014 02:30 4,6 C 2,8 C 94 % 1004,8 hPa 0,0 l/m 0 min 0 min 0,0 UV-I 0 W/m 12,9 km/h (3 Bft)
03.01.2014 02:32 4,6 C 2,8 C 94 % 1004,8 hPa 0,0 l/m 0 min 0 min 0,0 UV-I 0 W/m 20,6 km/h (4 Bft)
03.01.2014 02:34 4,6 C 2,8 C 94 % 1004,8 hPa 0,0 l/m 0 min 0 min 0,0 UV-I 0 W/m 18,0 km/h (3 Bft)
03.01.2014 02:36 4,6 C 2,8 C 94 % 1004,8 hPa 0,0 l/m 0 min 0 min 0,0 UV-I 0 W/m 20,6 km/h (4 Bft)
03.01.2014 02:38 4,6 C 3,3 C 94 % 1004,9 hPa 0,0 l/m 0 min 0 min 0,0 UV-I 0 W/m 12,9 km/h (3 Bft)
03.01.2014 02:40 4,6 C 2,8 C 94 % 1004,8 hPa 0,0 l/m 0 min 0 min 0,0 UV-I 0 W/m 20,6 km/h (4 Bft)
03.01.2014 02:42 4,6 C 2,8 C 94 % 1004,8 hPa 0,0 l/m 0 min 0 min 0,0 UV-I 0 W/m 15,4 km/h (3 Bft)
03.01.2014 02:44 4,7 C 2,8 C 94 % 1004,8 hPa 0,0 l/m 0 min 0 min 0,0 UV-I 0 W/m 12,9 km/h (3 Bft)
03.01.2014 02:46 4,7 C 2,8 C 94 % 1004,8 hPa 0,0 l/m 0 min 0 min 0,0 UV-I 0 W/m 12,9 km/h (3 Bft)
03.01.2014 02:48 4,7 C 2,8 C 94 % 1004,8 hPa 0,0 l/m 0 min 0 min 0,0 UV-I 0 W/m 15,4 km/h (3 Bft)
03.01.2014 02:50 4,7 C 2,8 C 94 % 1004,9 hPa 0,0 l/m 0 min 0 min 0,0 UV-I 0 W/m 10,3 km/h (2 Bft)
03.01.2014 02:52 4,7 C 2,8 C 94 % 1004,9 hPa 0,0 l/m 0 min 0 min 0,0 UV-I 0 W/m 7,7 km/h (2 Bft)
03.01.2014 02:54 4,7 C 2,8 C 94 % 1004,9 hPa 0,0 l/m 0 min 0 min 0,0 UV-I 0 W/m 10,3 km/h (2 Bft)
03.01.2014 02:56 4,7 C 2,8 C 94 % 1004,9 hPa 0,0 l/m 0 min 0 min 0,0 UV-I 0 W/m 15,4 km/h (3 Bft)
03.01.2014 02:58 4,6 C 2,8 C 94 % 1004,9 hPa 0,0 l/m 0 min 0 min 0,0 UV-I 0 W/m 10,3 km/h (2 Bft)
03.01.2014 03:00 4,6 C 2,8 C 94 % 1004,9 hPa 0,0 l/m 0 min 0 min 0,0 UV-I 0 W/m 12,9 km/h (3 Bft)
03.01.2014 03:02 4,7 C 2,8 C 94 % 1004,9 hPa 0,0 l/m 0 min 0 min 0,0 UV-I 0 W/m 10,3 km/h (2 Bft)
03.01.2014 03:04 4,6 C 2,8 C 94 % 1004,9 hPa 0,0 l/m 0 min 0 min 0,0 UV-I 0 W/m 18,0 km/h (3 Bft)
03.01.2014 03:06 4,6 C 2,8 C 94 % 1004,8 hPa 0,0 l/m 0 min 0 min 0,0 UV-I 0 W/m 12,9 km/h (3 Bft)
03.01.2014 03:08 4,7 C 2,8 C 94 % 1004,9 hPa 0,0 l/m 0 min 0 min 0,0 UV-I 0 W/m 10,3 km/h (2 Bft)
03.01.2014 03:10 4,7 C 2,8 C 94 % 1004,8 hPa 0,0 l/m 0 min 0 min 0,0 UV-I 0 W/m 18,0 km/h (3 Bft)
03.01.2014 03:12 4,7 C 2,8 C 94 % 1004,9 hPa 0,0 l/m 0 min 0 min 0,0 UV-I 0 W/m 10,3 km/h (2 Bft)
03.01.2014 03:14 4,7 C 2,8 C 94 % 1004,8 hPa 0,0 l/m 0 min 0 min 0,0 UV-I 0 W/m 10,3 km/h (2 Bft)
03.01.2014 03:16 4,7 C 2,8 C 94 % 1004,8 hPa 0,0 l/m 0 min 0 min 0,0 UV-I 0 W/m 10,3 km/h (2 Bft)
03.01.2014 03:18 4,7 C 2,8 C 94 % 1004,8 hPa 0,0 l/m 0 min 0 min 0,0 UV-I 0 W/m 10,3 km/h (2 Bft)
03.01.2014 03:20 4,7 C 2,8 C 94 % 1004,8 hPa 0,0 l/m 0 min 0 min 0,0 UV-I 0 W/m 7,7 km/h (2 Bft)
03.01.2014 03:22 4,7 C 2,8 C 94 % 1004,8 hPa 0,0 l/m 0 min 0 min 0,0 UV-I 0 W/m 10,3 km/h (2 Bft)
03.01.2014 03:24 4,7 C 2,8 C 94 % 1004,8 hPa 0,0 l/m 0 min 0 min 0,0 UV-I 0 W/m 7,7 km/h (2 Bft)
03.01.2014 03:26 4,6 C 2,8 C 94 % 1004,8 hPa 0,0 l/m 0 min 0 min 0,0 UV-I 0 W/m 12,9 km/h (3 Bft)
03.01.2014 03:28 4,7 C 2,8 C 94 % 1004,9 hPa 0,0 l/m 0 min 0 min 0,0 UV-I 0 W/m 12,9 km/h (3 Bft)
03.01.2014 03:30 4,6 C 2,8 C 94 % 1004,9 hPa 0,0 l/m 0 min 0 min 0,0 UV-I 0 W/m 10,3 km/h (2 Bft)
03.01.2014 03:32 4,6 C 2,8 C 94 % 1004,9 hPa 0,0 l/m 0 min 0 min 0,0 UV-I 0 W/m 10,3 km/h (2 Bft)
03.01.2014 03:34 4,6 C 2,8 C 94 % 1004,9 hPa 0,0 l/m 0 min 0 min 0,0 UV-I 0 W/m 10,3 km/h (2 Bft)
03.01.2014 03:36 4,6 C 2,8 C 94 % 1004,9 hPa 0,0 l/m 0 min 0 min 0,0 UV-I 0 W/m 12,9 km/h (3 Bft)
03.01.2014 03:38 4,6 C 2,8 C 94 % 1004,8 hPa 0,0 l/m 0 min 0 min 0,0 UV-I 0 W/m 12,9 km/h (3 Bft)
03.01.2014 03:40 4,7 C 2,8 C 94 % 1004,9 hPa 0,0 l/m 0 min 0 min 0,0 UV-I 0 W/m 10,3 km/h (2 Bft)
03.01.2014 03:42 4,6 C 2,8 C 94 % 1005,0 hPa 0,0 l/m 0 min 0 min 0,0 UV-I 0 W/m 7,7 km/h (2 Bft)
03.01.2014 03:44 4,6 C 2,8 C 94 % 1005,0 hPa 0,0 l/m 0 min 0 min 0,0 UV-I 0 W/m 7,7 km/h (2 Bft)
03.01.2014 03:46 4,6 C 2,8 C 94 % 1004,9 hPa 0,0 l/m 0 min 0 min 0,0 UV-I 0 W/m 10,3 km/h (2 Bft)
03.01.2014 03:48 4,6 C 3,3 C 94 % 1004,9 hPa 0,0 l/m 0 min 0 min 0,0 UV-I 0 W/m 7,7 km/h (2 Bft)
03.01.2014 03:50 4,7 C 3,3 C 94 % 1005,0 hPa 0,0 l/m 0 min 0 min 0,0 UV-I 0 W/m 2,6 km/h (1 Bft)
03.01.2014 03:52 4,7 C 3,3 C 94 % 1004,9 hPa 0,0 l/m 0 min 0 min 0,0 UV-I 0 W/m 5,1 km/h (1 Bft)
03.01.2014 03:54 4,7 C 3,3 C 95 % 1004,9 hPa 0,0 l/m 0 min 0 min 0,0 UV-I 0 W/m 7,7 km/h (2 Bft)
03.01.2014 03:56 4,7 C 3,3 C 95 % 1004,9 hPa 0,0 l/m 0 min 0 min 0,0 UV-I 0 W/m 7,7 km/h (2 Bft)
03.01.2014 03:58 4,7 C 3,3 C 95 % 1004,9 hPa 0,0 l/m 0 min 0 min 0,0 UV-I 0 W/m 7,7 km/h (2 Bft)
03.01.2014 04:00 4,7 C 3,3 C 95 % 1004,8 hPa 0,0 l/m 0 min 0 min 0,0 UV-I 0 W/m 20,6 km/h (4 Bft)
03.01.2014 04:05 4,8 C 3,3 C 95 % 1004,5 hPa 0,0 l/m 0 min 0 min 0,0 UV-I 0 W/m 15,4 km/h (3 Bft)
03.01.2014 04:06 4,8 C 3,3 C 95 % 1004,5 hPa 0,0 l/m 0 min 0 min 0,0 UV-I 0 W/m 10,3 km/h (2 Bft)
03.01.2014 04:08 4,8 C 3,3 C 95 % 1004,5 hPa 0,0 l/m 0 min 0 min 0,0 UV-I 0 W/m 7,7 km/h (2 Bft)
03.01.2014 04:10 4,8 C 3,3 C 95 % 1004,4 hPa 0,0 l/m 0 min 0 min 0,0 UV-I 0 W/m 12,9 km/h (3 Bft)
03.01.2014 04:12 4,9 C 3,3 C 95 % 1004,4 hPa 0,0 l/m 0 min 0 min 0,0 UV-I 0 W/m 18,0 km/h (3 Bft)
03.01.2014 04:14 4,9 C 3,3 C 95 % 1004,5 hPa 0,0 l/m 0 min 0 min 0,0 UV-I 0 W/m 18,0 km/h (3 Bft)
03.01.2014 04:16 4,9 C 3,3 C 95 % 1004,4 hPa 0,0 l/m 0 min 0 min 0,0 UV-I 0 W/m 12,9 km/h (3 Bft)
03.01.2014 04:18 5,0 C 3,3 C 95 % 1004,5 hPa 0,0 l/m 0 min 0 min 0,0 UV-I 0 W/m 10,3 km/h (2 Bft)
03.01.2014 04:20 5,0 C 3,3 C 95 % 1004,5 hPa 0,0 l/m 0 min 0 min 0,0 UV-I 0 W/m 18,0 km/h (3 Bft)
03.01.2014 04:22 5,1 C 3,3 C 95 % 1004,4 hPa 0,0 l/m 0 min 0 min 0,0 UV-I 0 W/m 10,3 km/h (2 Bft)
03.01.2014 04:24 5,1 C 3,3 C 95 % 1004,4 hPa 0,0 l/m 0 min 0 min 0,0 UV-I 0 W/m 15,4 km/h (3 Bft)
03.01.2014 04:26 5,2 C 3,3 C 95 % 1004,3 hPa 0,0 l/m 0 min 0 min 0,0 UV-I 0 W/m 15,4 km/h (3 Bft)
03.01.2014 04:28 5,2 C 3,9 C 95 % 1004,2 hPa 0,0 l/m 0 min 0 min 0,0 UV-I 0 W/m 18,0 km/h (3 Bft)
03.01.2014 04:30 5,2 C 3,9 C 95 % 1004,2 hPa 0,0 l/m 0 min 0 min 0,0 UV-I 0 W/m 7,7 km/h (2 Bft)
03.01.2014 04:32 5,2 C 3,9 C 95 % 1004,3 hPa 0,0 l/m 0 min 0 min 0,0 UV-I 0 W/m 12,9 km/h (3 Bft)
03.01.2014 04:34 5,3 C 3,9 C 95 % 1004,3 hPa 0,0 l/m 0 min 0 min 0,0 UV-I 0 W/m 10,3 km/h (2 Bft)
03.01.2014 04:36 5,3 C 3,9 C 95 % 1004,3 hPa 0,0 l/m 0 min 0 min 0,0 UV-I 0 W/m 18,0 km/h (3 Bft)
03.01.2014 04:38 5,3 C 3,9 C 95 % 1004,3 hPa 0,0 l/m 0 min 0 min 0,0 UV-I 0 W/m 12,9 km/h (3 Bft)
03.01.2014 04:40 5,4 C 3,9 C 95 % 1004,2 hPa 0,0 l/m 0 min 0 min 0,0 UV-I 0 W/m 12,9 km/h (3 Bft)
03.01.2014 04:42 5,4 C 3,9 C 95 % 1004,2 hPa 0,0 l/m 0 min 0 min 0,0 UV-I 0 W/m 23,2 km/h (4 Bft)
03.01.2014 04:44 5,4 C 3,9 C 95 % 1004,1 hPa 0,0 l/m 0 min 0 min 0,0 UV-I 0 W/m 15,4 km/h (3 Bft)
03.01.2014 04:46 5,4 C 3,9 C 95 % 1004,0 hPa 0,0 l/m 0 min 0 min 0,0 UV-I 0 W/m 15,4 km/h (3 Bft)
03.01.2014 04:48 5,5 C 3,9 C 95 % 1004,0 hPa 0,0 l/m 0 min 0 min 0,0 UV-I 0 W/m 18,0 km/h (3 Bft)
03.01.2014 04:50 5,5 C 3,9 C 95 % 1003,9 hPa 0,0 l/m 0 min 0 min 0,0 UV-I 0 W/m 10,3 km/h (2 Bft)
03.01.2014 04:52 5,6 C 3,9 C 95 % 1003,9 hPa 0,0 l/m 0 min 0 min 0,0 UV-I 0 W/m 12,9 km/h (3 Bft)
03.01.2014 04:54 5,6 C 3,9 C 95 % 1003,8 hPa 0,0 l/m 0 min 0 min 0,0 UV-I 0 W/m 18,0 km/h (3 Bft)
03.01.2014 04:56 5,6 C 3,9 C 95 % 1003,8 hPa 0,0 l/m 0 min 0 min 0,0 UV-I 0 W/m 15,4 km/h (3 Bft)
03.01.2014 04:58 5,6 C 3,9 C 95 % 1003,7 hPa 0,0 l/m 0 min 0 min 0,0 UV-I 0 W/m 12,9 km/h (3 Bft)
03.01.2014 05:00 5,7 C 3,9 C 95 % 1003,7 hPa 0,0 l/m 0 min 0 min 0,0 UV-I 0 W/m 12,9 km/h (3 Bft)
03.01.2014 05:02 5,7 C 3,9 C 95 % 1003,6 hPa 0,0 l/m 0 min 0 min 0,0 UV-I 0 W/m 12,9 km/h (3 Bft)
03.01.2014 05:04 5,7 C 3,9 C 95 % 1003,6 hPa 0,0 l/m 0 min 0 min 0,0 UV-I 0 W/m 10,3 km/h (2 Bft)
03.01.2014 05:06 5,7 C 3,9 C 95 % 1003,5 hPa 0,0 l/m 0 min 0 min 0,0 UV-I 0 W/m 10,3 km/h (2 Bft)
03.01.2014 05:08 5,7 C 3,9 C 95 % 1003,5 hPa 0,0 l/m 0 min 0 min 0,0 UV-I 0 W/m 10,3 km/h (2 Bft)
03.01.2014 05:10 5,8 C 3,9 C 95 % 1003,5 hPa 0,0 l/m 0 min 0 min 0,0 UV-I 0 W/m 20,6 km/h (4 Bft)
03.01.2014 05:12 5,8 C 3,9 C 95 % 1003,5 hPa 0,0 l/m 0 min 0 min 0,0 UV-I 0 W/m 15,4 km/h (3 Bft)
03.01.2014 05:14 5,8 C 3,9 C 95 % 1003,4 hPa 0,0 l/m 0 min 0 min 0,0 UV-I 0 W/m 12,9 km/h (3 Bft)
03.01.2014 05:16 5,8 C 3,9 C 95 % 1003,3 hPa 0,0 l/m 0 min 0 min 0,0 UV-I 0 W/m 10,3 km/h (2 Bft)
03.01.2014 05:18 5,8 C 3,9 C 95 % 1003,4 hPa 0,0 l/m 0 min 0 min 0,0 UV-I 0 W/m 7,7 km/h (2 Bft)
03.01.2014 05:20 5,9 C 3,9 C 95 % 1003,4 hPa 0,0 l/m 0 min 0 min 0,0 UV-I 0 W/m 15,4 km/h (3 Bft)
03.01.2014 05:22 5,9 C 4,4 C 95 % 1003,3 hPa 0,0 l/m 0 min 0 min 0,0 UV-I 0 W/m 5,1 km/h (1 Bft)
03.01.2014 05:24 5,9 C 4,4 C 95 % 1003,3 hPa 0,0 l/m 0 min 0 min 0,0 UV-I 0 W/m 15,4 km/h (3 Bft)
03.01.2014 05:26 5,9 C 4,4 C 95 % 1003,3 hPa 0,0 l/m 0 min 0 min 0,0 UV-I 0 W/m 18,0 km/h (3 Bft)
03.01.2014 05:28 5,9 C 4,4 C 95 % 1003,3 hPa 0,0 l/m 0 min 0 min 0,0 UV-I 0 W/m 15,4 km/h (3 Bft)
03.01.2014 05:30 6,0 C 4,4 C 95 % 1003,3 hPa 0,0 l/m 0 min 0 min 0,0 UV-I 0 W/m 18,0 km/h (3 Bft)
03.01.2014 05:32 6,0 C 4,4 C 95 % 1003,2 hPa 0,0 l/m 0 min 0 min 0,0 UV-I 0 W/m 12,9 km/h (3 Bft)
03.01.2014 05:34 6,1 C 4,4 C 95 % 1003,1 hPa 0,0 l/m 0 min 0 min 0,0 UV-I 0 W/m 20,6 km/h (4 Bft)
03.01.2014 05:36 6,1 C 4,4 C 95 % 1003,1 hPa 0,0 l/m 0 min 0 min 0,0 UV-I 0 W/m 20,6 km/h (4 Bft)
03.01.2014 05:38 6,1 C 4,4 C 95 % 1003,1 hPa 0,0 l/m 0 min 0 min 0,0 UV-I 0 W/m 23,2 km/h (4 Bft)
03.01.2014 05:40 6,1 C 4,4 C 95 % 1003,0 hPa 0,0 l/m 0 min 0 min 0,0 UV-I 0 W/m 23,2 km/h (4 Bft)
03.01.2014 05:42 6,2 C 4,4 C 95 % 1003,0 hPa 0,0 l/m 0 min 0 min 0,0 UV-I 0 W/m 23,2 km/h (4 Bft)
03.01.2014 05:44 6,2 C 4,4 C 94 % 1003,0 hPa 0,0 l/m 0 min 0 min 0,0 UV-I 0 W/m 20,6 km/h (4 Bft)
03.01.2014 05:46 6,2 C 4,4 C 94 % 1003,1 hPa 0,0 l/m 0 min 0 min 0,0 UV-I 0 W/m 20,6 km/h (4 Bft)
03.01.2014 05:48 6,2 C 4,4 C 94 % 1003,1 hPa 0,0 l/m 0 min 0 min 0,0 UV-I 0 W/m 15,4 km/h (3 Bft)
03.01.2014 05:50 6,3 C 4,4 C 94 % 1003,1 hPa 0,0 l/m 0 min 0 min 0,0 UV-I 0 W/m 18,0 km/h (3 Bft)
03.01.2014 05:52 6,3 C 5,0 C 94 % 1003,1 hPa 0,0 l/m 0 min 0 min 0,0 UV-I 0 W/m 18,0 km/h (3 Bft)
03.01.2014 05:54 6,3 C 5,0 C 94 % 1003,1 hPa 0,0 l/m 0 min 0 min 0,0 UV-I 0 W/m 12,9 km/h (3 Bft)
03.01.2014 05:56 6,4 C 5,0 C 94 % 1003,0 hPa 0,0 l/m 0 min 0 min 0,0 UV-I 0 W/m 20,6 km/h (4 Bft)
03.01.2014 05:58 6,4 C 5,0 C 94 % 1003,0 hPa 0,0 l/m 0 min 0 min 0,0 UV-I 0 W/m 25,7 km/h (4 Bft)
03.01.2014 06:00 6,4 C 5,0 C 94 % 1002,9 hPa 0,0 l/m 0 min 0 min 0,0 UV-I 0 W/m 20,6 km/h (4 Bft)
03.01.2014 06:02 6,4 C 5,0 C 94 % 1003,0 hPa 0,0 l/m 0 min 0 min 0,0 UV-I 0 W/m 18,0 km/h (3 Bft)
03.01.2014 06:04 6,5 C 5,0 C 94 % 1003,0 hPa 0,0 l/m 0 min 0 min 0,0 UV-I 0 W/m 23,2 km/h (4 Bft)
03.01.2014 06:06 6,6 C 5,0 C 94 % 1002,9 hPa 0,0 l/m 0 min 0 min 0,0 UV-I 0 W/m 28,3 km/h (4 Bft)
03.01.2014 06:08 6,6 C 5,0 C 94 % 1002,9 hPa 0,0 l/m 0 min 0 min 0,0 UV-I 0 W/m 20,6 km/h (4 Bft)
03.01.2014 06:10 6,6 C 5,0 C 94 % 1003,0 hPa 0,0 l/m 0 min 0 min 0,0 UV-I 0 W/m 20,6 km/h (4 Bft)
03.01.2014 06:12 6,7 C 5,0 C 94 % 1003,0 hPa 0,0 l/m 0 min 0 min 0,0 UV-I 0 W/m 25,7 km/h (4 Bft)
03.01.2014 06:14 6,7 C 5,0 C 94 % 1002,9 hPa 0,0 l/m 0 min 0 min 0,0 UV-I 0 W/m 23,2 km/h (4 Bft)
03.01.2014 06:16 6,7 C 5,0 C 94 % 1002,9 hPa 0,0 l/m 0 min 0 min 0,0 UV-I 0 W/m 15,4 km/h (3 Bft)
03.01.2014 06:18 6,7 C 5,0 C 93 % 1002,8 hPa 0,0 l/m 0 min 0 min 0,0 UV-I 0 W/m 28,3 km/h (4 Bft)
03.01.2014 06:20 6,7 C 5,0 C 93 % 1002,8 hPa 0,0 l/m 0 min 0 min 0,0 UV-I 0 W/m 20,6 km/h (4 Bft)
03.01.2014 06:22 6,8 C 5,0 C 93 % 1002,8 hPa 0,0 l/m 0 min 0 min 0,0 UV-I 0 W/m 12,9 km/h (3 Bft)
03.01.2014 06:24 6,8 C 5,0 C 93 % 1002,8 hPa 0,0 l/m 0 min 0 min 0,0 UV-I 0 W/m 20,6 km/h (4 Bft)
03.01.2014 06:26 6,8 C 5,0 C 93 % 1002,8 hPa 0,0 l/m 0 min 0 min 0,0 UV-I 0 W/m 18,0 km/h (3 Bft)
03.01.2014 06:28 6,8 C 5,0 C 93 % 1002,7 hPa 0,0 l/m 0 min 0 min 0,0 UV-I 0 W/m 25,7 km/h (4 Bft)
03.01.2014 06:30 6,8 C 5,0 C 93 % 1002,7 hPa 0,0 l/m 0 min 0 min 0,0 UV-I 0 W/m 18,0 km/h (3 Bft)
03.01.2014 06:32 6,8 C 5,0 C 93 % 1002,9 hPa 0,0 l/m 0 min 0 min 0,0 UV-I 0 W/m 25,7 km/h (4 Bft)
03.01.2014 06:34 6,9 C 5,0 C 93 % 1002,8 hPa 0,0 l/m 0 min 0 min 0,0 UV-I 0 W/m 20,6 km/h (4 Bft)
03.01.2014 06:36 6,9 C 5,0 C 93 % 1002,8 hPa 0,0 l/m 0 min 0 min 0,0 UV-I 0 W/m 18,0 km/h (3 Bft)
03.01.2014 06:38 6,9 C 5,0 C 93 % 1002,8 hPa 0,0 l/m 0 min 0 min 0,0 UV-I 0 W/m 25,7 km/h (4 Bft)
03.01.2014 06:40 6,9 C 5,0 C 93 % 1002,8 hPa 0,0 l/m 0 min 0 min 0,0 UV-I 0 W/m 28,3 km/h (4 Bft)
03.01.2014 06:42 6,9 C 5,6 C 93 % 1002,7 hPa 0,0 l/m 0 min 0 min 0,0 UV-I 0 W/m 20,6 km/h (4 Bft)
03.01.2014 06:44 6,9 C 5,6 C 93 % 1002,6 hPa 0,0 l/m 0 min 0 min 0,0 UV-I 0 W/m 18,0 km/h (3 Bft)
03.01.2014 06:46 6,9 C 5,6 C 93 % 1002,5 hPa 0,0 l/m 0 min 0 min 0,0 UV-I 0 W/m 28,3 km/h (4 Bft)
03.01.2014 06:48 6,9 C 5,6 C 93 % 1002,4 hPa 0,0 l/m 0 min 0 min 0,0 UV-I 0 W/m 23,2 km/h (4 Bft)
03.01.2014 06:50 7,0 C 5,6 C 93 % 1002,4 hPa 0,0 l/m 0 min 0 min 0,0 UV-I 0 W/m 20,6 km/h (4 Bft)
03.01.2014 06:52 7,0 C 5,6 C 93 % 1002,4 hPa 0,0 l/m 0 min 0 min 0,0 UV-I 0 W/m 25,7 km/h (4 Bft)
03.01.2014 06:54 7,1 C 5,6 C 93 % 1002,4 hPa 0,0 l/m 0 min 0 min 0,0 UV-I 0 W/m 25,7 km/h (4 Bft)
03.01.2014 06:56 7,1 C 5,6 C 93 % 1002,3 hPa 0,0 l/m 0 min 0 min 0,0 UV-I 0 W/m 18,0 km/h (3 Bft)
03.01.2014 06:58 7,1 C 5,6 C 93 % 1002,3 hPa 0,0 l/m 0 min 0 min 0,0 UV-I 0 W/m 23,2 km/h (4 Bft)
03.01.2014 07:00 7,1 C 5,6 C 93 % 1002,3 hPa 0,0 l/m 0 min 0 min 0,0 UV-I 0 W/m 28,3 km/h (4 Bft)
03.01.2014 07:02 7,2 C 5,6 C 93 % 1002,2 hPa 0,0 l/m 0 min 0 min 0,0 UV-I 0 W/m 20,6 km/h (4 Bft)
03.01.2014 07:04 7,2 C 5,6 C 93 % 1002,2 hPa 0,0 l/m 0 min 0 min 0,0 UV-I 0 W/m 18,0 km/h (3 Bft)
03.01.2014 07:06 7,2 C 5,6 C 93 % 1002,2 hPa 0,0 l/m 0 min 0 min 0,0 UV-I 0 W/m 30,9 km/h (5 Bft)
03.01.2014 07:08 7,2 C 5,6 C 93 % 1002,2 hPa 0,0 l/m 0 min 2 min 0,0 UV-I 0 W/m 20,6 km/h (4 Bft)
03.01.2014 07:10 7,3 C 5,6 C 93 % 1002,1 hPa 0,0 l/m 0 min 2 min 0,0 UV-I 0 W/m 25,7 km/h (4 Bft)
03.01.2014 07:12 7,3 C 5,6 C 93 % 1002,2 hPa 0,0 l/m 0 min 0 min 0,0 UV-I 0 W/m 20,6 km/h (4 Bft)
03.01.2014 07:14 7,3 C 5,6 C 93 % 1002,1 hPa 0,0 l/m 0 min 0 min 0,0 UV-I 0 W/m 23,2 km/h (4 Bft)
03.01.2014 07:16 7,3 C 5,6 C 93 % 1002,0 hPa 0,0 l/m 0 min 0 min 0,0 UV-I 0 W/m 18,0 km/h (3 Bft)
03.01.2014 07:18 7,3 C 5,6 C 93 % 1001,9 hPa 0,0 l/m 0 min 0 min 0,0 UV-I 0 W/m 23,2 km/h (4 Bft)
03.01.2014 07:20 7,4 C 5,6 C 93 % 1001,8 hPa 0,0 l/m 0 min 0 min 0,0 UV-I 0 W/m 20,6 km/h (4 Bft)
03.01.2014 07:22 7,4 C 5,6 C 93 % 1001,7 hPa 0,0 l/m 0 min 0 min 0,0 UV-I 0 W/m 15,4 km/h (3 Bft)
03.01.2014 07:24 7,4 C 5,6 C 93 % 1001,7 hPa 0,0 l/m 0 min 0 min 0,0 UV-I 0 W/m 23,2 km/h (4 Bft)
03.01.2014 07:26 7,4 C 5,6 C 93 % 1001,6 hPa 0,0 l/m 0 min 0 min 0,0 UV-I 0 W/m 28,3 km/h (4 Bft)
03.01.2014 07:28 7,4 C 5,6 C 93 % 1001,6 hPa 0,0 l/m 0 min 0 min 0,0 UV-I 0 W/m 25,7 km/h (4 Bft)
03.01.2014 07:30 7,4 C 5,6 C 93 % 1001,6 hPa 0,0 l/m 0 min 0 min 0,0 UV-I 0 W/m 20,6 km/h (4 Bft)
03.01.2014 07:32 7,4 C 5,6 C 93 % 1001,5 hPa 0,0 l/m 0 min 0 min 0,0 UV-I 0 W/m 20,6 km/h (4 Bft)
03.01.2014 07:34 7,4 C 5,6 C 92 % 1001,5 hPa 0,0 l/m 0 min 0 min 0,0 UV-I 0 W/m 25,7 km/h (4 Bft)
03.01.2014 07:36 7,4 C 5,6 C 92 % 1001,4 hPa 0,0 l/m 0 min 0 min 0,0 UV-I 0 W/m 18,0 km/h (3 Bft)
03.01.2014 07:38 7,4 C 5,6 C 92 % 1001,4 hPa 0,0 l/m 0 min 0 min 0,0 UV-I 0 W/m 23,2 km/h (4 Bft)
03.01.2014 07:40 7,4 C 5,6 C 92 % 1001,4 hPa 0,0 l/m 0 min 0 min 0,0 UV-I 0 W/m 18,0 km/h (3 Bft)
03.01.2014 07:42 7,4 C 5,6 C 92 % 1001,4 hPa 0,0 l/m 0 min 0 min 0,0 UV-I 0 W/m 28,3 km/h (4 Bft)
03.01.2014 07:44 7,4 C 5,6 C 92 % 1001,3 hPa 0,0 l/m 0 min 0 min 0,0 UV-I 0 W/m 30,9 km/h (5 Bft)
03.01.2014 07:46 7,5 C 5,6 C 92 % 1001,3 hPa 0,0 l/m 0 min 0 min 0,0 UV-I 0 W/m 28,3 km/h (4 Bft)
03.01.2014 07:48 7,5 C 5,6 C 92 % 1001,2 hPa 0,0 l/m 0 min 0 min 0,0 UV-I 0 W/m 33,5 km/h (5 Bft)
03.01.2014 07:50 7,5 C 5,6 C 92 % 1001,2 hPa 0,0 l/m 0 min 0 min 0,0 UV-I 0 W/m 38,6 km/h (5 Bft)
03.01.2014 07:52 7,5 C 5,6 C 92 % 1001,2 hPa 0,0 l/m 0 min 0 min 0,0 UV-I 0 W/m 28,3 km/h (4 Bft)
03.01.2014 07:54 7,6 C 5,6 C 92 % 1001,3 hPa 0,0 l/m 0 min 0 min 0,0 UV-I 0 W/m 23,2 km/h (4 Bft)
03.01.2014 07:56 7,6 C 5,6 C 92 % 1001,3 hPa 0,0 l/m 0 min 0 min 0,0 UV-I 0 W/m 23,2 km/h (4 Bft)
03.01.2014 07:58 7,6 C 5,6 C 92 % 1001,3 hPa 0,0 l/m 0 min 0 min 0,0 UV-I 0 W/m 23,2 km/h (4 Bft)
03.01.2014 08:00 7,6 C 5,6 C 92 % 1001,2 hPa 0,0 l/m 0 min 0 min 0,0 UV-I 0 W/m 23,2 km/h (4 Bft)
03.01.2014 08:02 7,6 C 5,6 C 92 % 1001,2 hPa 0,0 l/m 0 min 0 min 0,0 UV-I 0 W/m 28,3 km/h (4 Bft)
03.01.2014 08:04 7,6 C 5,6 C 92 % 1001,2 hPa 0,0 l/m 0 min 0 min 0,0 UV-I 0 W/m 20,6 km/h (4 Bft)
03.01.2014 08:06 7,6 C 5,6 C 92 % 1001,2 hPa 0,0 l/m 0 min 0 min 0,0 UV-I 0 W/m 33,5 km/h (5 Bft)
03.01.2014 08:08 7,6 C 5,6 C 92 % 1001,2 hPa 0,0 l/m 0 min 0 min 0,0 UV-I 0 W/m 25,7 km/h (4 Bft)
03.01.2014 08:10 7,6 C 5,6 C 92 % 1001,2 hPa 0,0 l/m 0 min 0 min 0,0 UV-I 0 W/m 28,3 km/h (4 Bft)
03.01.2014 08:12 7,6 C 5,6 C 92 % 1001,2 hPa 0,0 l/m 0 min 0 min 0,0 UV-I 0 W/m 23,2 km/h (4 Bft)
03.01.2014 08:14 7,6 C 5,6 C 92 % 1001,1 hPa 0,0 l/m 0 min 0 min 0,0 UV-I 0 W/m 33,5 km/h (5 Bft)
03.01.2014 08:16 7,6 C 5,6 C 92 % 1001,2 hPa 0,0 l/m 0 min 0 min 0,0 UV-I 0 W/m 33,5 km/h (5 Bft)
03.01.2014 08:18 7,6 C 5,6 C 92 % 1001,0 hPa 0,0 l/m 0 min 0 min 0,0 UV-I 0 W/m 25,7 km/h (4 Bft)
03.01.2014 08:20 7,6 C 5,6 C 92 % 1001,1 hPa 0,0 l/m 0 min 0 min 0,0 UV-I 0 W/m 15,4 km/h (3 Bft)
03.01.2014 08:22 7,6 C 5,6 C 92 % 1001,2 hPa 0,0 l/m 0 min 0 min 0,0 UV-I 0 W/m 25,7 km/h (4 Bft)
03.01.2014 08:24 7,6 C 6,1 C 92 % 1001,3 hPa 0,0 l/m 0 min 0 min 0,0 UV-I 0 W/m 20,6 km/h (4 Bft)
03.01.2014 08:26 7,6 C 6,1 C 92 % 1001,4 hPa 0,0 l/m 0 min 0 min 0,0 UV-I 0 W/m 25,7 km/h (4 Bft)
03.01.2014 08:28 7,6 C 6,1 C 92 % 1001,4 hPa 0,0 l/m 0 min 0 min 0,0 UV-I 0 W/m 18,0 km/h (3 Bft)
03.01.2014 08:30 7,6 C 6,1 C 92 % 1001,5 hPa 0,0 l/m 0 min 0 min 0,0 UV-I 0 W/m 10,3 km/h (2 Bft)
03.01.2014 08:32 7,6 C 6,1 C 92 % 1001,5 hPa 0,0 l/m 0 min 2 min 0,0 UV-I 0 W/m 12,9 km/h (3 Bft)
03.01.2014 08:34 7,6 C 6,1 C 92 % 1001,5 hPa 0,0 l/m 0 min 2 min 0,0 UV-I 0 W/m 15,4 km/h (3 Bft)
03.01.2014 08:36 7,6 C 5,6 C 92 % 1001,5 hPa 0,0 l/m 0 min 0 min 0,0 UV-I 0 W/m 12,9 km/h (3 Bft)
03.01.2014 08:38 7,7 C 5,6 C 92 % 1001,6 hPa 0,0 l/m 0 min 2 min 0,0 UV-I 0 W/m 23,2 km/h (4 Bft)
03.01.2014 08:40 7,7 C 5,6 C 92 % 1001,6 hPa 0,0 l/m 0 min 0 min 0,0 UV-I 0 W/m 15,4 km/h (3 Bft)
03.01.2014 08:42 7,7 C 5,6 C 92 % 1001,7 hPa 0,0 l/m 0 min 0 min 0,0 UV-I 0 W/m 10,3 km/h (2 Bft)
03.01.2014 08:44 7,7 C 5,6 C 92 % 1001,7 hPa 0,0 l/m 0 min 0 min 0,0 UV-I 0 W/m 18,0 km/h (3 Bft)
03.01.2014 08:46 7,7 C 5,6 C 93 % 1001,7 hPa 0,0 l/m 0 min 0 min 0,0 UV-I 0 W/m 20,6 km/h (4 Bft)
03.01.2014 08:48 7,7 C 5,6 C 92 % 1001,7 hPa 0,0 l/m 0 min 2 min 0,0 UV-I 0 W/m 15,4 km/h (3 Bft)
03.01.2014 08:50 7,7 C 5,6 C 92 % 1001,8 hPa 0,0 l/m 0 min 2 min 0,0 UV-I 0 W/m 12,9 km/h (3 Bft)
03.01.2014 08:52 7,7 C 5,6 C 93 % 1001,9 hPa 0,0 l/m 0 min 2 min 0,0 UV-I 0 W/m 12,9 km/h (3 Bft)
03.01.2014 08:54 7,7 C 5,6 C 93 % 1001,8 hPa 0,0 l/m 0 min 2 min 0,0 UV-I 0 W/m 12,9 km/h (3 Bft)
03.01.2014 08:56 7,7 C 5,6 C 93 % 1001,9 hPa 0,0 l/m 0 min 2 min 0,0 UV-I 0 W/m 12,9 km/h (3 Bft)
03.01.2014 08:58 7,7 C 5,6 C 93 % 1001,8 hPa 0,0 l/m 0 min 2 min 0,0 UV-I 5 W/m 18,0 km/h (3 Bft)
03.01.2014 09:00 7,7 C 6,1 C 93 % 1001,9 hPa 0,2 l/m 0 min 2 min 0,0 UV-I 5 W/m 12,9 km/h (3 Bft)
03.01.2014 09:02 7,7 C 6,1 C 93 % 1001,9 hPa 0,0 l/m 0 min 2 min 0,0 UV-I 5 W/m 18,0 km/h (3 Bft)
03.01.2014 09:04 7,7 C 6,1 C 93 % 1002,0 hPa 0,0 l/m 0 min 2 min 0,0 UV-I 5 W/m 18,0 km/h (3 Bft)
03.01.2014 09:06 7,7 C 6,1 C 93 % 1002,1 hPa 0,0 l/m 0 min 2 min 0,0 UV-I 5 W/m 15,4 km/h (3 Bft)
03.01.2014 09:08 7,7 C 6,1 C 93 % 1002,1 hPa 0,0 l/m 0 min 2 min 0,0 UV-I 5 W/m 28,3 km/h (4 Bft)
03.01.2014 09:10 7,7 C 6,1 C 93 % 1002,2 hPa 0,2 l/m 0 min 2 min 0,0 UV-I 5 W/m 20,6 km/h (4 Bft)
03.01.2014 09:12 7,8 C 6,1 C 94 % 1002,2 hPa 0,0 l/m 0 min 2 min 0,0 UV-I 7 W/m 20,6 km/h (4 Bft)
03.01.2014 09:14 7,8 C 6,1 C 94 % 1002,2 hPa 0,0 l/m 0 min 2 min 0,0 UV-I 7 W/m 28,3 km/h (4 Bft)
03.01.2014 09:16 7,8 C 6,1 C 94 % 1002,2 hPa 0,0 l/m 0 min 2 min 0,0 UV-I 7 W/m 15,4 km/h (3 Bft)
03.01.2014 09:18 7,8 C 6,1 C 94 % 1002,2 hPa 0,0 l/m 0 min 2 min 0,0 UV-I 7 W/m 18,0 km/h (3 Bft)
03.01.2014 09:20 7,8 C 6,1 C 94 % 1002,2 hPa 0,0 l/m 0 min 2 min 0,0 UV-I 7 W/m 18,0 km/h (3 Bft)
03.01.2014 09:22 7,8 C 6,1 C 94 % 1002,2 hPa 0,0 l/m 0 min 2 min 0,0 UV-I 7 W/m 12,9 km/h (3 Bft)
03.01.2014 09:24 7,8 C 6,1 C 94 % 1002,3 hPa 0,0 l/m 0 min 2 min 0,0 UV-I 7 W/m 12,9 km/h (3 Bft)
03.01.2014 09:26 7,8 C 6,1 C 94 % 1002,2 hPa 0,0 l/m 0 min 2 min 0,0 UV-I 9 W/m 12,9 km/h (3 Bft)
03.01.2014 09:28 7,8 C 6,1 C 94 % 1002,3 hPa 0,0 l/m 0 min 2 min 0,0 UV-I 9 W/m 12,9 km/h (3 Bft)
03.01.2014 09:30 7,7 C 6,1 C 95 % 1002,3 hPa 0,2 l/m 0 min 2 min 0,0 UV-I 9 W/m 5,1 km/h (1 Bft)
03.01.2014 09:32 7,7 C 6,1 C 94 % 1002,3 hPa 0,0 l/m 0 min 2 min 0,0 UV-I 7 W/m 7,7 km/h (2 Bft)
03.01.2014 09:34 7,7 C 6,1 C 94 % 1002,3 hPa 0,0 l/m 0 min 2 min 0,0 UV-I 9 W/m 2,6 km/h (1 Bft)
03.01.2014 09:36 7,7 C 6,1 C 95 % 1002,4 hPa 0,0 l/m 0 min 2 min 0,0 UV-I 9 W/m 20,6 km/h (4 Bft)
03.01.2014 09:38 7,7 C 6,1 C 95 % 1002,4 hPa 0,0 l/m 0 min 2 min 0,0 UV-I 9 W/m 0,0 km/h (0 Bft)
03.01.2014 09:40 7,7 C 6,1 C 95 % 1002,4 hPa 0,0 l/m 0 min 2 min 0,0 UV-I 11 W/m 12,9 km/h (3 Bft)
03.01.2014 09:42 7,7 C 6,1 C 95 % 1002,3 hPa 0,0 l/m 0 min 2 min 0,0 UV-I 11 W/m 15,4 km/h (3 Bft)
03.01.2014 09:44 7,7 C 6,1 C 95 % 1002,3 hPa 0,0 l/m 0 min 0 min 0,0 UV-I 12 W/m 7,7 km/h (2 Bft)
03.01.2014 09:46 7,7 C 6,1 C 95 % 1002,3 hPa 0,0 l/m 0 min 0 min 0,0 UV-I 12 W/m 15,4 km/h (3 Bft)
03.01.2014 09:48 7,7 C 6,1 C 95 % 1002,3 hPa 0,0 l/m 0 min 0 min 0,0 UV-I 14 W/m 15,4 km/h (3 Bft)
03.01.2014 09:50 7,7 C 6,1 C 95 % 1002,3 hPa 0,0 l/m 0 min 0 min 0,0 UV-I 18 W/m 10,3 km/h (2 Bft)
03.01.2014 09:52 7,7 C 6,1 C 95 % 1002,2 hPa 0,0 l/m 0 min 0 min 0,0 UV-I 19 W/m 2,6 km/h (1 Bft)
03.01.2014 09:54 7,8 C 6,1 C 95 % 1002,3 hPa 0,0 l/m 0 min 0 min 0,0 UV-I 23 W/m 2,6 km/h (1 Bft)
03.01.2014 09:56 7,8 C 6,1 C 95 % 1002,3 hPa 0,0 l/m 0 min 0 min 0,0 UV-I 28 W/m 7,7 km/h (2 Bft)
03.01.2014 09:58 7,8 C 6,7 C 95 % 1002,4 hPa 0,0 l/m 0 min 0 min 0,0 UV-I 32 W/m 7,7 km/h (2 Bft)
03.01.2014 10:00 7,8 C 6,7 C 95 % 1002,3 hPa 0,0 l/m 0 min 0 min 0,0 UV-I 32 W/m 5,1 km/h (1 Bft)
03.01.2014 10:02 7,8 C 6,7 C 95 % 1002,3 hPa 0,0 l/m 0 min 0 min 0,0 UV-I 26 W/m 7,7 km/h (2 Bft)
03.01.2014 10:04 7,8 C 6,7 C 95 % 1002,3 hPa 0,0 l/m 0 min 0 min 0,0 UV-I 30 W/m 2,6 km/h (1 Bft)
03.01.2014 10:06 7,8 C 6,7 C 95 % 1002,3 hPa 0,0 l/m 0 min 0 min 0,0 UV-I 28 W/m 10,3 km/h (2 Bft)
03.01.2014 10:08 7,8 C 6,7 C 95 % 1002,4 hPa 0,0 l/m 0 min 0 min 0,0 UV-I 33 W/m 10,3 km/h (2 Bft)
03.01.2014 10:10 7,9 C 6,7 C 95 % 1002,3 hPa 0,0 l/m 0 min 0 min 0,0 UV-I 30 W/m 18,0 km/h (3 Bft)
03.01.2014 10:12 7,9 C 6,7 C 96 % 1002,4 hPa 0,0 l/m 0 min 0 min 0,0 UV-I 28 W/m 15,4 km/h (3 Bft)
03.01.2014 10:14 8,1 C 6,7 C 96 % 1002,4 hPa 0,0 l/m 0 min 0 min 0,0 UV-I 26 W/m 10,3 km/h (2 Bft)
03.01.2014 10:16 8,1 C 7,2 C 96 % 1002,4 hPa 0,0 l/m 0 min 0 min 0,0 UV-I 23 W/m 43,8 km/h (6 Bft)
03.01.2014 10:18 8,2 C 7,2 C 96 % 1002,4 hPa 0,0 l/m 0 min 0 min 0,0 UV-I 25 W/m 15,4 km/h (3 Bft)
03.01.2014 10:20 8,2 C 7,2 C 96 % 1002,4 hPa 0,0 l/m 0 min 0 min 0,0 UV-I 26 W/m 12,9 km/h (3 Bft)
03.01.2014 10:22 8,3 C 7,2 C 96 % 1002,4 hPa 0,0 l/m 0 min 0 min 0,0 UV-I 26 W/m 12,9 km/h (3 Bft)
03.01.2014 10:24 8,4 C 7,2 C 96 % 1002,5 hPa 0,0 l/m 0 min 0 min 0,0 UV-I 28 W/m 12,9 km/h (3 Bft)
03.01.2014 10:26 8,4 C 7,2 C 96 % 1002,5 hPa 0,0 l/m 0 min 0 min 0,0 UV-I 26 W/m 20,6 km/h (4 Bft)
03.01.2014 10:28 8,5 C 7,2 C 96 % 1002,6 hPa 0,0 l/m 0 min 0 min 0,0 UV-I 33 W/m 18,0 km/h (3 Bft)
03.01.2014 10:30 8,6 C 7,2 C 96 % 1002,5 hPa 0,0 l/m 0 min 0 min 0,0 UV-I 39 W/m 20,6 km/h (4 Bft)
03.01.2014 10:32 8,6 C 7,2 C 96 % 1002,5 hPa 0,0 l/m 0 min 0 min 0,0 UV-I 35 W/m 18,0 km/h (3 Bft)
03.01.2014 10:34 8,7 C 7,2 C 96 % 1002,7 hPa 0,0 l/m 0 min 0 min 0,0 UV-I 26 W/m 18,0 km/h (3 Bft)
03.01.2014 10:36 8,7 C 7,2 C 96 % 1002,7 hPa 0,0 l/m 0 min 0 min 0,0 UV-I 26 W/m 15,4 km/h (3 Bft)
03.01.2014 10:38 8,8 C 7,2 C 96 % 1002,9 hPa 0,0 l/m 0 min 0 min 0,0 UV-I 23 W/m 18,0 km/h (3 Bft)
03.01.2014 10:40 8,8 C 7,2 C 96 % 1003,0 hPa 0,0 l/m 0 min 0 min 0,0 UV-I 25 W/m 36,0 km/h (5 Bft)
03.01.2014 10:42 8,9 C 7,2 C 96 % 1002,9 hPa 0,0 l/m 0 min 0 min 0,0 UV-I 23 W/m 28,3 km/h (4 Bft)
03.01.2014 10:44 9,0 C 7,2 C 96 % 1002,9 hPa 0,0 l/m 0 min 0 min 0,0 UV-I 23 W/m 25,7 km/h (4 Bft)
03.01.2014 10:46 9,1 C 7,2 C 96 % 1002,9 hPa 0,0 l/m 0 min 0 min 0,0 UV-I 26 W/m 33,5 km/h (5 Bft)
03.01.2014 10:48 9,2 C 7,8 C 96 % 1002,9 hPa 0,0 l/m 0 min 0 min 0,0 UV-I 26 W/m 20,6 km/h (4 Bft)
03.01.2014 10:50 9,2 C 7,8 C 95 % 1002,9 hPa 0,0 l/m 0 min 0 min 0,0 UV-I 30 W/m 30,9 km/h (5 Bft)
03.01.2014 10:52 9,3 C 7,8 C 95 % 1002,9 hPa 0,0 l/m 0 min 0 min 0,0 UV-I 30 W/m 23,2 km/h (4 Bft)
03.01.2014 10:54 9,3 C 7,8 C 95 % 1002,9 hPa 0,0 l/m 0 min 0 min 0,0 UV-I 33 W/m 15,4 km/h (3 Bft)
03.01.2014 10:56 9,4 C 7,8 C 94 % 1002,8 hPa 0,0 l/m 0 min 0 min 0,0 UV-I 25 W/m 18,0 km/h (3 Bft)
03.01.2014 10:58 9,4 C 7,8 C 94 % 1002,8 hPa 0,0 l/m 0 min 0 min 0,0 UV-I 19 W/m 15,4 km/h (3 Bft)
03.01.2014 11:00 9,5 C 7,8 C 94 % 1003,0 hPa 0,0 l/m 0 min 0 min 0,0 UV-I 19 W/m 10,3 km/h (2 Bft)
03.01.2014 11:02 9,5 C 7,8 C 94 % 1002,9 hPa 0,0 l/m 0 min 0 min 0,0 UV-I 19 W/m 23,2 km/h (4 Bft)
03.01.2014 11:04 9,6 C 7,8 C 93 % 1002,9 hPa 0,0 l/m 0 min 0 min 0,0 UV-I 21 W/m 7,7 km/h (2 Bft)
03.01.2014 11:06 9,6 C 7,8 C 93 % 1002,9 hPa 0,0 l/m 0 min 0 min 0,0 UV-I 23 W/m 7,7 km/h (2 Bft)
03.01.2014 11:08 9,6 C 7,8 C 93 % 1002,8 hPa 0,0 l/m 0 min 0 min 0,0 UV-I 23 W/m 23,2 km/h (4 Bft)
03.01.2014 11:10 9,6 C 7,8 C 92 % 1002,9 hPa 0,0 l/m 0 min 0 min 0,0 UV-I 25 W/m 23,2 km/h (4 Bft)
03.01.2014 11:12 9,7 C 7,8 C 92 % 1003,0 hPa 0,0 l/m 0 min 0 min 0,0 UV-I 28 W/m 20,6 km/h (4 Bft)
03.01.2014 11:14 9,7 C 7,8 C 92 % 1003,0 hPa 0,0 l/m 0 min 0 min 0,0 UV-I 25 W/m 18,0 km/h (3 Bft)
03.01.2014 11:16 9,7 C 7,8 C 91 % 1003,0 hPa 0,0 l/m 0 min 0 min 0,0 UV-I 44 W/m 30,9 km/h (5 Bft)
03.01.2014 11:18 9,8 C 7,8 C 91 % 1003,0 hPa 0,0 l/m 0 min 0 min 0,0 UV-I 39 W/m 18,0 km/h (3 Bft)
03.01.2014 11:20 9,8 C 7,8 C 91 % 1002,9 hPa 0,0 l/m 0 min 0 min 0,0 UV-I 35 W/m 23,2 km/h (4 Bft)
03.01.2014 11:22 9,9 C 7,8 C 91 % 1003,0 hPa 0,0 l/m 0 min 0 min 0,0 UV-I 35 W/m 18,0 km/h (3 Bft)
03.01.2014 11:24 9,9 C 7,8 C 90 % 1002,9 hPa 0,0 l/m 0 min 0 min 0,0 UV-I 90 W/m 23,2 km/h (4 Bft)
03.01.2014 11:26 10,1 C 7,8 C 90 % 1003,0 hPa 0,0 l/m 0 min 0 min 0,0 UV-I 113 W/m 20,6 km/h (4 Bft)
03.01.2014 11:28 10,2 C 7,8 C 90 % 1003,0 hPa 0,0 l/m 0 min 0 min 0,0 UV-I 102 W/m 23,2 km/h (4 Bft)
03.01.2014 11:30 10,3 C 8,3 C 89 % 1003,1 hPa 0,0 l/m 0 min 0 min 0,0 UV-I 111 W/m 15,4 km/h (3 Bft)
03.01.2014 11:32 10,3 C 8,3 C 89 % 1003,0 hPa 0,0 l/m 0 min 0 min 0,0 UV-I 107 W/m 18,0 km/h (3 Bft)
03.01.2014 11:34 10,4 C 8,3 C 89 % 1003,0 hPa 0,0 l/m 0 min 0 min 0,0 UV-I 95 W/m 23,2 km/h (4 Bft)
03.01.2014 11:36 10,4 C 8,3 C 88 % 1003,0 hPa 0,0 l/m 0 min 0 min 0,0 UV-I 91 W/m 23,2 km/h (4 Bft)
03.01.2014 11:38 10,5 C 8,3 C 88 % 1002,9 hPa 0,0 l/m 0 min 0 min 0,0 UV-I 84 W/m 18,0 km/h (3 Bft)
03.01.2014 11:40 10,5 C 8,3 C 88 % 1002,9 hPa 0,0 l/m 0 min 0 min 0,0 UV-I 84 W/m 18,0 km/h (3 Bft)
03.01.2014 11:42 10,6 C 7,8 C 88 % 1002,9 hPa 0,0 l/m 0 min 0 min 0,0 UV-I 111 W/m 15,4 km/h (3 Bft)
03.01.2014 11:44 10,6 C 8,3 C 87 % 1002,8 hPa 0,0 l/m 0 min 0 min 0,0 UV-I 139 W/m 15,4 km/h (3 Bft)
03.01.2014 11:46 10,6 C 8,3 C 87 % 1002,8 hPa 0,0 l/m 2 min 0 min 0,0 UV-I 171 W/m 15,4 km/h (3 Bft)
03.01.2014 11:48 10,7 C 8,3 C 87 % 1002,9 hPa 0,0 l/m 2 min 0 min 0,0 UV-I 192 W/m 25,7 km/h (4 Bft)
03.01.2014 11:50 10,8 C 8,3 C 87 % 1002,7 hPa 0,0 l/m 0 min 0 min 0,0 UV-I 144 W/m 15,4 km/h (3 Bft)
03.01.2014 11:52 10,8 C 8,3 C 87 % 1002,7 hPa 0,0 l/m 2 min 0 min 0,0 UV-I 181 W/m 25,7 km/h (4 Bft)
03.01.2014 11:54 10,8 C 8,3 C 87 % 1002,7 hPa 0,0 l/m 2 min 0 min 0,0 UV-I 169 W/m 20,6 km/h (4 Bft)
03.01.2014 11:56 10,9 C 8,3 C 86 % 1002,8 hPa 0,0 l/m 2 min 0 min 0,0 UV-I 209 W/m 18,0 km/h (3 Bft)
03.01.2014 11:58 10,9 C 8,3 C 86 % 1002,8 hPa 0,0 l/m 2 min 0 min 0,0 UV-I 169 W/m 23,2 km/h (4 Bft)
03.01.2014 12:00 11,0 C 8,3 C 86 % 1002,6 hPa 0,0 l/m 2 min 0 min 0,0 UV-I 207 W/m 20,6 km/h (4 Bft)
03.01.2014 12:02 11,1 C 8,3 C 86 % 1002,6 hPa 0,0 l/m 2 min 0 min 0,0 UV-I 195 W/m 15,4 km/h (3 Bft)
03.01.2014 12:04 11,1 C 8,3 C 86 % 1002,6 hPa 0,0 l/m 2 min 0 min 0,0 UV-I 211 W/m 12,9 km/h (3 Bft)
03.01.2014 12:06 11,2 C 8,3 C 86 % 1002,8 hPa 0,0 l/m 2 min 0 min 0,0 UV-I 207 W/m 20,6 km/h (4 Bft)
03.01.2014 12:08 11,3 C 8,3 C 85 % 1002,6 hPa 0,0 l/m 2 min 0 min 0,0 UV-I 220 W/m 36,0 km/h (5 Bft)
03.01.2014 12:10 11,3 C 8,3 C 85 % 1002,6 hPa 0,0 l/m 2 min 0 min 0,0 UV-I 214 W/m 25,7 km/h (4 Bft)
03.01.2014 12:12 11,4 C 8,9 C 84 % 1002,6 hPa 0,0 l/m 2 min 0 min 0,0 UV-I 234 W/m 23,2 km/h (4 Bft)
03.01.2014 12:14 11,4 C 8,9 C 84 % 1002,6 hPa 0,0 l/m 2 min 0 min 0,0 UV-I 239 W/m 12,9 km/h (3 Bft)
03.01.2014 12:16 11,5 C 8,9 C 84 % 1002,6 hPa 0,0 l/m 0 min 0 min 0,0 UV-I 116 W/m 15,4 km/h (3 Bft)
03.01.2014 12:18 11,5 C 8,9 C 83 % 1002,8 hPa 0,0 l/m 0 min 0 min 0,0 UV-I 144 W/m 20,6 km/h (4 Bft)
03.01.2014 12:20 11,6 C 8,9 C 83 % 1002,6 hPa 0,0 l/m 0 min 0 min 0,0 UV-I 120 W/m 28,3 km/h (4 Bft)
03.01.2014 12:22 11,6 C 8,9 C 83 % 1002,6 hPa 0,0 l/m 0 min 0 min 0,0 UV-I 84 W/m 18,0 km/h (3 Bft)
03.01.2014 12:24 11,6 C 8,9 C 83 % 1002,6 hPa 0,0 l/m 0 min 0 min 0,0 UV-I 113 W/m 20,6 km/h (4 Bft)
03.01.2014 12:26 11,6 C 8,9 C 82 % 1002,6 hPa 0,0 l/m 0 min 0 min 0,0 UV-I 120 W/m 30,9 km/h (5 Bft)
03.01.2014 12:28 11,6 C 8,9 C 83 % 1002,6 hPa 0,0 l/m 2 min 0 min 0,0 UV-I 193 W/m 23,2 km/h (4 Bft)
03.01.2014 12:30 11,7 C 8,9 C 82 % 1002,5 hPa 0,0 l/m 2 min 0 min 0,0 UV-I 211 W/m 18,0 km/h (3 Bft)
03.01.2014 12:32 11,8 C 8,9 C 82 % 1002,5 hPa 0,0 l/m 2 min 0 min 0,0 UV-I 172 W/m 33,5 km/h (5 Bft)
03.01.2014 12:34 11,8 C 8,9 C 81 % 1002,7 hPa 0,0 l/m 0 min 0 min 0,0 UV-I 132 W/m 28,3 km/h (4 Bft)
03.01.2014 12:36 11,9 C 8,9 C 81 % 1002,6 hPa 0,0 l/m 2 min 0 min 0,0 UV-I 202 W/m 33,5 km/h (5 Bft)
03.01.2014 12:38 12,0 C 8,9 C 81 % 1002,6 hPa 0,0 l/m 2 min 0 min 0,0 UV-I 218 W/m 33,5 km/h (5 Bft)
03.01.2014 12:40 12,1 C 9,4 C 81 % 1002,6 hPa 0,0 l/m 2 min 0 min 0,0 UV-I 265 W/m 20,6 km/h (4 Bft)
03.01.2014 12:42 12,2 C 9,4 C 80 % 1002,6 hPa 0,0 l/m 2 min 0 min 0,0 UV-I 236 W/m 23,2 km/h (4 Bft)
03.01.2014 12:44 12,2 C 9,4 C 80 % 1002,6 hPa 0,0 l/m 2 min 0 min 0,0 UV-I 188 W/m 28,3 km/h (4 Bft)
03.01.2014 12:46 12,2 C 9,4 C 80 % 1002,6 hPa 0,0 l/m 2 min 0 min 0,0 UV-I 244 W/m 30,9 km/h (5 Bft)
03.01.2014 12:48 12,3 C 9,4 C 80 % 1002,6 hPa 0,0 l/m 2 min 0 min 0,0 UV-I 236 W/m 30,9 km/h (5 Bft)
03.01.2014 12:50 12,3 C 9,4 C 80 % 1002,5 hPa 0,0 l/m 2 min 0 min 0,0 UV-I 244 W/m 15,4 km/h (3 Bft)
03.01.2014 12:52 12,4 C 9,4 C 79 % 1002,8 hPa 0,0 l/m 2 min 0 min 0,0 UV-I 163 W/m 33,5 km/h (5 Bft)
03.01.2014 12:54 12,3 C 9,4 C 79 % 1002,5 hPa 0,0 l/m 2 min 0 min 0,0 UV-I 218 W/m 25,7 km/h (4 Bft)
03.01.2014 12:56 12,3 C 9,4 C 79 % 1002,5 hPa 0,0 l/m 2 min 0 min 0,0 UV-I 213 W/m 28,3 km/h (4 Bft)
03.01.2014 12:58 12,4 C 9,4 C 79 % 1002,6 hPa 0,0 l/m 2 min 0 min 0,0 UV-I 225 W/m 12,9 km/h (3 Bft)
03.01.2014 13:00 12,4 C 9,4 C 78 % 1002,5 hPa 0,0 l/m 2 min 0 min 0,0 UV-I 183 W/m 23,2 km/h (4 Bft)
03.01.2014 13:02 12,4 C 9,4 C 78 % 1002,6 hPa 0,0 l/m 2 min 0 min 0,0 UV-I 229 W/m 20,6 km/h (4 Bft)
03.01.2014 13:04 12,5 C 9,4 C 78 % 1002,9 hPa 0,0 l/m 2 min 0 min 0,0 UV-I 227 W/m 36,0 km/h (5 Bft)
03.01.2014 13:06 12,6 C 9,4 C 77 % 1002,6 hPa 0,0 l/m 2 min 0 min 0,0 UV-I 225 W/m 38,6 km/h (5 Bft)
03.01.2014 13:08 12,6 C 10,0 C 78 % 1002,5 hPa 0,0 l/m 2 min 0 min 0,0 UV-I 232 W/m 10,3 km/h (2 Bft)
03.01.2014 13:10 12,6 C 10,0 C 78 % 1002,5 hPa 0,0 l/m 2 min 0 min 0,0 UV-I 246 W/m 0,0 km/h (0 Bft)
03.01.2014 13:12 12,7 C 10,0 C 77 % 1002,5 hPa 0,0 l/m 2 min 0 min 0,0 UV-I 241 W/m 28,3 km/h (4 Bft)
03.01.2014 13:14 12,8 C 10,0 C 77 % 1002,6 hPa 0,0 l/m 2 min 0 min 0,0 UV-I 195 W/m 12,9 km/h (3 Bft)
03.01.2014 13:16 12,8 C 10,6 C 77 % 1002,4 hPa 0,0 l/m 0 min 0 min 0,0 UV-I 148 W/m 20,6 km/h (4 Bft)
03.01.2014 13:18 12,8 C 10,6 C 77 % 1002,4 hPa 0,0 l/m 2 min 0 min 0,0 UV-I 151 W/m 23,2 km/h (4 Bft)
03.01.2014 13:20 12,7 C 10,6 C 77 % 1002,5 hPa 0,0 l/m 2 min 0 min 0,0 UV-I 244 W/m 28,3 km/h (4 Bft)
03.01.2014 13:22 12,8 C 10,6 C 77 % 1002,6 hPa 0,0 l/m 2 min 0 min 0,0 UV-I 221 W/m 18,0 km/h (3 Bft)
03.01.2014 13:24 12,9 C 11,1 C 76 % 1002,4 hPa 0,0 l/m 2 min 0 min 0,0 UV-I 176 W/m 18,0 km/h (3 Bft)
03.01.2014 13:26 12,9 C 11,1 C 76 % 1002,6 hPa 0,0 l/m 2 min 0 min 0,0 UV-I 151 W/m 23,2 km/h (4 Bft)
03.01.2014 13:28 12,9 C 11,1 C 76 % 1002,6 hPa 0,0 l/m 0 min 0 min 0,0 UV-I 134 W/m 20,6 km/h (4 Bft)
03.01.2014 13:30 12,9 C 11,1 C 76 % 1002,5 hPa 0,0 l/m 2 min 0 min 0,0 UV-I 156 W/m 25,7 km/h (4 Bft)
03.01.2014 13:32 12,8 C 11,1 C 76 % 1002,4 hPa 0,0 l/m 2 min 0 min 0,0 UV-I 151 W/m 18,0 km/h (3 Bft)
03.01.2014 13:34 12,8 C 11,1 C 76 % 1002,5 hPa 0,0 l/m 2 min 0 min 0,0 UV-I 213 W/m 5,1 km/h (1 Bft)
03.01.2014 13:36 12,8 C 11,1 C 76 % 1002,6 hPa 0,0 l/m 2 min 0 min 0,0 UV-I 156 W/m 20,6 km/h (4 Bft)
03.01.2014 13:38 12,8 C 11,1 C 76 % 1002,5 hPa 0,0 l/m 0 min 0 min 0,0 UV-I 137 W/m 28,3 km/h (4 Bft)
03.01.2014 13:40 12,9 C 11,1 C 76 % 1002,4 hPa 0,0 l/m 0 min 0 min 0,0 UV-I 127 W/m 23,2 km/h (4 Bft)
03.01.2014 13:42 12,8 C 11,1 C 76 % 1002,4 hPa 0,0 l/m 0 min 0 min 0,0 UV-I 128 W/m 18,0 km/h (3 Bft)
03.01.2014 13:44 12,8 C 11,1 C 76 % 1002,6 hPa 0,0 l/m 0 min 0 min 0,0 UV-I 125 W/m 15,4 km/h (3 Bft)
03.01.2014 13:46 12,8 C 11,1 C 75 % 1002,4 hPa 0,0 l/m 0 min 0 min 0,0 UV-I 109 W/m 30,9 km/h (5 Bft)
03.01.2014 13:48 12,9 C 11,1 C 75 % 1002,4 hPa 0,0 l/m 0 min 0 min 0,0 UV-I 105 W/m 43,8 km/h (6 Bft)
03.01.2014 13:50 12,9 C 11,1 C 76 % 1002,3 hPa 0,0 l/m 0 min 0 min 0,0 UV-I 107 W/m 15,4 km/h (3 Bft)
03.01.2014 13:52 12,8 C 11,1 C 76 % 1002,4 hPa 0,0 l/m 0 min 0 min 0,0 UV-I 118 W/m 15,4 km/h (3 Bft)
03.01.2014 13:54 12,9 C 11,1 C 75 % 1002,3 hPa 0,0 l/m 0 min 0 min 0,0 UV-I 135 W/m 18,0 km/h (3 Bft)
03.01.2014 13:56 12,8 C 11,1 C 76 % 1002,4 hPa 0,0 l/m 0 min 0 min 0,0 UV-I 132 W/m 33,5 km/h (5 Bft)
03.01.2014 13:58 12,9 C 11,1 C 76 % 1002,6 hPa 0,0 l/m 0 min 0 min 0,0 UV-I 107 W/m 18,0 km/h (3 Bft)
03.01.2014 14:00 12,8 C 11,1 C 76 % 1002,3 hPa 0,0 l/m 0 min 0 min 0,0 UV-I 91 W/m 28,3 km/h (4 Bft)
03.01.2014 14:02 12,8 C 11,1 C 76 % 1002,3 hPa 0,0 l/m 0 min 0 min 0,0 UV-I 51 W/m 25,7 km/h (4 Bft)
03.01.2014 14:04 12,8 C 11,1 C 76 % 1002,4 hPa 0,0 l/m 0 min 0 min 0,0 UV-I 47 W/m 23,2 km/h (4 Bft)
03.01.2014 14:06 12,8 C 10,6 C 76 % 1002,2 hPa 0,0 l/m 0 min 0 min 0,0 UV-I 44 W/m 25,7 km/h (4 Bft)
03.01.2014 14:08 12,7 C 10,6 C 76 % 1002,1 hPa 0,0 l/m 0 min 0 min 0,0 UV-I 39 W/m 25,7 km/h (4 Bft)
03.01.2014 14:10 12,7 C 10,6 C 76 % 1002,2 hPa 0,0 l/m 0 min 0 min 0,0 UV-I 49 W/m 20,6 km/h (4 Bft)
03.01.2014 14:12 12,7 C 10,6 C 76 % 1002,2 hPa 0,0 l/m 0 min 0 min 0,0 UV-I 60 W/m 20,6 km/h (4 Bft)
03.01.2014 14:14 12,7 C 10,6 C 76 % 1002,2 hPa 0,0 l/m 0 min 0 min 0,0 UV-I 60 W/m 15,4 km/h (3 Bft)
03.01.2014 14:16 12,7 C 10,6 C 76 % 1002,1 hPa 0,0 l/m 0 min 0 min 0,0 UV-I 72 W/m 38,6 km/h (5 Bft)
03.01.2014 14:18 12,6 C 10,6 C 76 % 1002,1 hPa 0,0 l/m 0 min 0 min 0,0 UV-I 83 W/m 15,4 km/h (3 Bft)
03.01.2014 14:20 12,7 C 10,6 C 76 % 1002,2 hPa 0,0 l/m 0 min 0 min 0,0 UV-I 69 W/m 25,7 km/h (4 Bft)
03.01.2014 14:22 12,7 C 10,6 C 76 % 1002,1 hPa 0,0 l/m 0 min 0 min 0,0 UV-I 60 W/m 20,6 km/h (4 Bft)
03.01.2014 14:24 12,7 C 10,6 C 76 % 1002,2 hPa 0,0 l/m 0 min 0 min 0,0 UV-I 51 W/m 23,2 km/h (4 Bft)
03.01.2014 14:26 12,7 C 10,6 C 76 % 1002,1 hPa 0,0 l/m 0 min 0 min 0,0 UV-I 37 W/m 23,2 km/h (4 Bft)
03.01.2014 14:28 12,6 C 10,6 C 76 % 1002,1 hPa 0,0 l/m 0 min 0 min 0,0 UV-I 39 W/m 18,0 km/h (3 Bft)
03.01.2014 14:30 12,6 C 10,6 C 77 % 1002,1 hPa 0,0 l/m 0 min 0 min 0,0 UV-I 46 W/m 18,0 km/h (3 Bft)
03.01.2014 14:32 12,6 C 10,6 C 77 % 1002,1 hPa 0,0 l/m 0 min 0 min 0,0 UV-I 39 W/m 15,4 km/h (3 Bft)
03.01.2014 14:34 12,6 C 10,6 C 77 % 1002,2 hPa 0,0 l/m 0 min 0 min 0,0 UV-I 44 W/m 23,2 km/h (4 Bft)
03.01.2014 14:36 12,6 C 10,6 C 76 % 1002,2 hPa 0,0 l/m 0 min 0 min 0,0 UV-I 39 W/m 15,4 km/h (3 Bft)
03.01.2014 14:38 12,6 C 10,6 C 76 % 1002,2 hPa 0,0 l/m 0 min 0 min 0,0 UV-I 54 W/m 15,4 km/h (3 Bft)
03.01.2014 14:40 12,6 C 10,6 C 77 % 1002,2 hPa 0,0 l/m 0 min 0 min 0,0 UV-I 54 W/m 12,9 km/h (3 Bft)
03.01.2014 14:42 12,6 C 10,6 C 77 % 1002,2 hPa 0,0 l/m 0 min 0 min 0,0 UV-I 58 W/m 18,0 km/h (3 Bft)
03.01.2014 14:44 12,6 C 10,6 C 77 % 1002,1 hPa 0,0 l/m 0 min 0 min 0,0 UV-I 54 W/m 20,6 km/h (4 Bft)
03.01.2014 14:46 12,6 C 10,6 C 77 % 1002,1 hPa 0,0 l/m 0 min 0 min 0,0 UV-I 63 W/m 20,6 km/h (4 Bft)
03.01.2014 14:48 12,6 C 10,6 C 77 % 1002,3 hPa 0,0 l/m 0 min 0 min 0,0 UV-I 63 W/m 25,7 km/h (4 Bft)
03.01.2014 14:50 12,6 C 10,6 C 77 % 1002,2 hPa 0,0 l/m 0 min 0 min 0,0 UV-I 54 W/m 23,2 km/h (4 Bft)
03.01.2014 14:52 12,6 C 10,6 C 77 % 1002,1 hPa 0,0 l/m 0 min 0 min 0,0 UV-I 54 W/m 15,4 km/h (3 Bft)
03.01.2014 14:54 12,6 C 10,6 C 77 % 1002,2 hPa 0,0 l/m 0 min 0 min 0,0 UV-I 49 W/m 12,9 km/h (3 Bft)
03.01.2014 14:56 12,6 C 10,6 C 77 % 1002,4 hPa 0,0 l/m 0 min 0 min 0,0 UV-I 40 W/m 25,7 km/h (4 Bft)
03.01.2014 14:58 12,6 C 10,6 C 77 % 1002,3 hPa 0,0 l/m 0 min 0 min 0,0 UV-I 40 W/m 25,7 km/h (4 Bft)
03.01.2014 15:00 12,6 C 10,6 C 77 % 1002,3 hPa 0,0 l/m 0 min 0 min 0,0 UV-I 35 W/m 15,4 km/h (3 Bft)
03.01.2014 15:02 12,6 C 10,6 C 77 % 1002,4 hPa 0,0 l/m 0 min 0 min 0,0 UV-I 33 W/m 18,0 km/h (3 Bft)
03.01.2014 15:04 12,5 C 10,6 C 77 % 1002,4 hPa 0,0 l/m 0 min 0 min 0,0 UV-I 30 W/m 12,9 km/h (3 Bft)
03.01.2014 15:06 12,5 C 10,6 C 77 % 1002,5 hPa 0,0 l/m 0 min 0 min 0,0 UV-I 28 W/m 12,9 km/h (3 Bft)
03.01.2014 15:08 12,5 C 10,6 C 78 % 1002,6 hPa 0,0 l/m 0 min 0 min 0,0 UV-I 26 W/m 15,4 km/h (3 Bft)
03.01.2014 15:10 12,5 C 10,6 C 78 % 1002,5 hPa 0,0 l/m 0 min 0 min 0,0 UV-I 25 W/m 25,7 km/h (4 Bft)
03.01.2014 15:12 12,5 C 10,6 C 77 % 1002,6 hPa 0,0 l/m 0 min 0 min 0,0 UV-I 21 W/m 23,2 km/h (4 Bft)
03.01.2014 15:14 12,5 C 10,6 C 78 % 1002,6 hPa 0,0 l/m 0 min 0 min 0,0 UV-I 26 W/m 18,0 km/h (3 Bft)
03.01.2014 15:16 12,5 C 10,6 C 77 % 1002,6 hPa 0,0 l/m 0 min 0 min 0,0 UV-I 32 W/m 15,4 km/h (3 Bft)
03.01.2014 15:18 12,5 C 10,6 C 78 % 1002,6 hPa 0,0 l/m 0 min 0 min 0,0 UV-I 32 W/m 7,7 km/h (2 Bft)
03.01.2014 15:20 12,5 C 10,6 C 78 % 1002,5 hPa 0,0 l/m 0 min 0 min 0,0 UV-I 30 W/m 5,1 km/h (1 Bft)
03.01.2014 15:22 12,5 C 10,6 C 78 % 1002,5 hPa 0,0 l/m 0 min 0 min 0,0 UV-I 30 W/m 20,6 km/h (4 Bft)
03.01.2014 15:24 12,5 C 10,6 C 78 % 1002,6 hPa 0,0 l/m 0 min 0 min 0,0 UV-I 33 W/m 23,2 km/h (4 Bft)
03.01.2014 15:26 12,5 C 10,6 C 78 % 1002,8 hPa 0,0 l/m 0 min 0 min 0,0 UV-I 28 W/m 20,6 km/h (4 Bft)
03.01.2014 15:28 12,5 C 10,6 C 78 % 1002,7 hPa 0,0 l/m 0 min 0 min 0,0 UV-I 28 W/m 10,3 km/h (2 Bft)
03.01.2014 15:30 12,5 C 10,6 C 78 % 1002,7 hPa 0,0 l/m 0 min 0 min 0,0 UV-I 32 W/m 30,9 km/h (5 Bft)
03.01.2014 15:32 12,5 C 10,6 C 78 % 1002,7 hPa 0,0 l/m 0 min 0 min 0,0 UV-I 28 W/m 18,0 km/h (3 Bft)
03.01.2014 15:34 12,5 C 10,6 C 78 % 1002,7 hPa 0,0 l/m 0 min 0 min 0,0 UV-I 42 W/m 23,2 km/h (4 Bft)
03.01.2014 15:36 12,5 C 10,6 C 78 % 1002,7 hPa 0,0 l/m 0 min 0 min 0,0 UV-I 51 W/m 20,6 km/h (4 Bft)
03.01.2014 15:38 12,5 C 10,6 C 79 % 1002,7 hPa 0,0 l/m 0 min 0 min 0,0 UV-I 53 W/m 20,6 km/h (4 Bft)
03.01.2014 15:40 12,5 C 10,6 C 78 % 1002,8 hPa 0,0 l/m 0 min 0 min 0,0 UV-I 56 W/m 23,2 km/h (4 Bft)
03.01.2014 15:42 12,5 C 10,6 C 78 % 1002,8 hPa 0,0 l/m 0 min 0 min 0,0 UV-I 44 W/m 12,9 km/h (3 Bft)
03.01.2014 15:44 12,5 C 10,6 C 78 % 1002,9 hPa 0,0 l/m 0 min 0 min 0,0 UV-I 46 W/m 28,3 km/h (4 Bft)
03.01.2014 15:46 12,5 C 10,6 C 78 % 1002,7 hPa 0,0 l/m 2 min 0 min 0,0 UV-I 63 W/m 25,7 km/h (4 Bft)
03.01.2014 15:48 12,5 C 10,6 C 78 % 1002,6 hPa 0,0 l/m 2 min 0 min 0,0 UV-I 69 W/m 15,4 km/h (3 Bft)
03.01.2014 15:50 12,6 C 10,6 C 78 % 1002,7 hPa 0,0 l/m 2 min 0 min 0,0 UV-I 58 W/m 20,6 km/h (4 Bft)
03.01.2014 15:52 12,6 C 10,6 C 78 % 1002,6 hPa 0,0 l/m 2 min 0 min 0,0 UV-I 60 W/m 18,0 km/h (3 Bft)
03.01.2014 15:54 12,6 C 10,6 C 78 % 1002,7 hPa 0,0 l/m 2 min 0 min 0,0 UV-I 60 W/m 23,2 km/h (4 Bft)
03.01.2014 15:56 12,6 C 10,6 C 78 % 1002,8 hPa 0,0 l/m 2 min 0 min 0,0 UV-I 58 W/m 30,9 km/h (5 Bft)
03.01.2014 15:58 12,5 C 10,6 C 78 % 1002,6 hPa 0,0 l/m 2 min 0 min 0,0 UV-I 54 W/m 20,6 km/h (4 Bft)
03.01.2014 16:00 12,5 C 10,6 C 78 % 1002,6 hPa 0,0 l/m 2 min 0 min 0,0 UV-I 51 W/m 18,0 km/h (3 Bft)
03.01.2014 16:02 12,4 C 10,6 C 78 % 1002,6 hPa 0,0 l/m 2 min 0 min 0,0 UV-I 51 W/m 10,3 km/h (2 Bft)
03.01.2014 16:04 12,4 C 10,0 C 78 % 1002,8 hPa 0,0 l/m 2 min 0 min 0,0 UV-I 49 W/m 15,4 km/h (3 Bft)
03.01.2014 16:06 12,3 C 10,6 C 78 % 1002,6 hPa 0,0 l/m 2 min 0 min 0,0 UV-I 46 W/m 23,2 km/h (4 Bft)
03.01.2014 16:08 12,3 C 10,0 C 78 % 1002,6 hPa 0,0 l/m 2 min 0 min 0,0 UV-I 42 W/m 18,0 km/h (3 Bft)
03.01.2014 16:10 12,3 C 10,0 C 78 % 1002,6 hPa 0,0 l/m 2 min 0 min 0,0 UV-I 39 W/m 28,3 km/h (4 Bft)
03.01.2014 16:12 12,3 C 10,0 C 78 % 1002,6 hPa 0,0 l/m 2 min 0 min 0,0 UV-I 33 W/m 12,9 km/h (3 Bft)
03.01.2014 16:14 12,2 C 10,0 C 78 % 1002,6 hPa 0,0 l/m 2 min 0 min 0,0 UV-I 30 W/m 15,4 km/h (3 Bft)
03.01.2014 16:16 12,2 C 10,0 C 78 % 1002,6 hPa 0,0 l/m 2 min 0 min 0,0 UV-I 26 W/m 10,3 km/h (2 Bft)
03.01.2014 16:18 12,2 C 10,0 C 79 % 1002,6 hPa 0,0 l/m 2 min 0 min 0,0 UV-I 21 W/m 18,0 km/h (3 Bft)
03.01.2014 16:20 12,1 C 10,0 C 79 % 1002,6 hPa 0,0 l/m 0 min 0 min 0,0 UV-I 18 W/m 18,0 km/h (3 Bft)
03.01.2014 16:22 12,0 C 10,0 C 79 % 1002,6 hPa 0,0 l/m 0 min 0 min 0,0 UV-I 16 W/m 18,0 km/h (3 Bft)
03.01.2014 16:24 12,0 C 10,0 C 79 % 1002,6 hPa 0,0 l/m 0 min 0 min 0,0 UV-I 14 W/m 18,0 km/h (3 Bft)
03.01.2014 16:26 12,0 C 10,0 C 79 % 1002,6 hPa 0,0 l/m 0 min 0 min 0,0 UV-I 14 W/m 18,0 km/h (3 Bft)
03.01.2014 16:28 12,0 C 10,0 C 79 % 1002,7 hPa 0,0 l/m 0 min 0 min 0,0 UV-I 12 W/m 10,3 km/h (2 Bft)
03.01.2014 16:30 11,9 C 10,0 C 79 % 1002,6 hPa 0,0 l/m 0 min 0 min 0,0 UV-I 11 W/m 12,9 km/h (3 Bft)
03.01.2014 16:32 11,9 C 10,0 C 79 % 1002,5 hPa 0,0 l/m 0 min 0 min 0,0 UV-I 9 W/m 10,3 km/h (2 Bft)
03.01.2014 16:34 11,8 C 10,0 C 79 % 1002,6 hPa 0,0 l/m 0 min 0 min 0,0 UV-I 9 W/m 36,0 km/h (5 Bft)
03.01.2014 16:36 11,8 C 9,4 C 80 % 1002,6 hPa 0,0 l/m 0 min 0 min 0,0 UV-I 7 W/m 15,4 km/h (3 Bft)
03.01.2014 16:38 11,8 C 9,4 C 80 % 1002,6 hPa 0,0 l/m 0 min 0 min 0,0 UV-I 7 W/m 12,9 km/h (3 Bft)
03.01.2014 16:40 11,8 C 9,4 C 80 % 1002,6 hPa 0,0 l/m 0 min 0 min 0,0 UV-I 7 W/m 18,0 km/h (3 Bft)
03.01.2014 16:42 11,8 C 9,4 C 80 % 1002,7 hPa 0,0 l/m 0 min 0 min 0,0 UV-I 7 W/m 20,6 km/h (4 Bft)
03.01.2014 16:44 11,8 C 9,4 C 80 % 1002,6 hPa 0,0 l/m 0 min 0 min 0,0 UV-I 7 W/m 15,4 km/h (3 Bft)
03.01.2014 16:46 11,7 C 9,4 C 80 % 1002,6 hPa 0,0 l/m 0 min 0 min 0,0 UV-I 7 W/m 12,9 km/h (3 Bft)
03.01.2014 16:48 11,7 C 9,4 C 80 % 1002,7 hPa 0,0 l/m 0 min 0 min 0,0 UV-I 7 W/m 15,4 km/h (3 Bft)
03.01.2014 16:50 11,7 C 9,4 C 80 % 1002,6 hPa 0,0 l/m 0 min 0 min 0,0 UV-I 5 W/m 18,0 km/h (3 Bft)
03.01.2014 16:52 11,7 C 9,4 C 80 % 1002,7 hPa 0,0 l/m 0 min 0 min 0,0 UV-I 0 W/m 10,3 km/h (2 Bft)
03.01.2014 16:54 11,7 C 9,4 C 80 % 1002,8 hPa 0,0 l/m 0 min 0 min 0,0 UV-I 0 W/m 15,4 km/h (3 Bft)
03.01.2014 16:56 11,6 C 9,4 C 80 % 1002,6 hPa 0,0 l/m 0 min 0 min 0,0 UV-I 0 W/m 2,6 km/h (1 Bft)
03.01.2014 16:58 11,6 C 9,4 C 80 % 1002,6 hPa 0,0 l/m 0 min 0 min 0,0 UV-I 0 W/m 20,6 km/h (4 Bft)
03.01.2014 17:00 11,6 C 9,4 C 80 % 1002,7 hPa 0,0 l/m 0 min 0 min 0,0 UV-I 0 W/m 15,4 km/h (3 Bft)
03.01.2014 17:02 11,6 C 9,4 C 80 % 1002,6 hPa 0,0 l/m 0 min 0 min 0,0 UV-I 0 W/m 10,3 km/h (2 Bft)
03.01.2014 17:04 11,6 C 9,4 C 80 % 1002,6 hPa 0,0 l/m 0 min 0 min 0,0 UV-I 0 W/m 23,2 km/h (4 Bft)
03.01.2014 17:06 11,7 C 9,4 C 80 % 1002,6 hPa 0,0 l/m 0 min 0 min 0,0 UV-I 0 W/m 18,0 km/h (3 Bft)
03.01.2014 17:08 11,7 C 9,4 C 80 % 1002,5 hPa 0,0 l/m 0 min 0 min 0,0 UV-I 0 W/m 18,0 km/h (3 Bft)
03.01.2014 17:10 11,7 C 10,0 C 80 % 1002,5 hPa 0,0 l/m 0 min 0 min 0,0 UV-I 0 W/m 12,9 km/h (3 Bft)
03.01.2014 17:12 11,7 C 9,4 C 80 % 1002,4 hPa 0,0 l/m 0 min 0 min 0,0 UV-I 0 W/m 15,4 km/h (3 Bft)
03.01.2014 17:14 11,7 C 9,4 C 80 % 1002,3 hPa 0,0 l/m 0 min 0 min 0,0 UV-I 0 W/m 10,3 km/h (2 Bft)
03.01.2014 17:16 11,7 C 9,4 C 80 % 1002,3 hPa 0,0 l/m 0 min 0 min 0,0 UV-I 0 W/m 12,9 km/h (3 Bft)
03.01.2014 17:18 11,7 C 9,4 C 80 % 1002,2 hPa 0,0 l/m 0 min 0 min 0,0 UV-I 0 W/m 15,4 km/h (3 Bft)
03.01.2014 17:20 11,7 C 9,4 C 80 % 1002,2 hPa 0,0 l/m 0 min 0 min 0,0 UV-I 0 W/m 10,3 km/h (2 Bft)
03.01.2014 17:22 11,7 C 9,4 C 80 % 1002,2 hPa 0,0 l/m 0 min 0 min 0,0 UV-I 0 W/m 7,7 km/h (2 Bft)
03.01.2014 17:24 11,7 C 9,4 C 80 % 1002,1 hPa 0,0 l/m 0 min 0 min 0,0 UV-I 0 W/m 12,9 km/h (3 Bft)
03.01.2014 17:26 11,6 C 9,4 C 80 % 1002,1 hPa 0,0 l/m 0 min 0 min 0,0 UV-I 0 W/m 20,6 km/h (4 Bft)
03.01.2014 17:28 11,6 C 9,4 C 80 % 1002,1 hPa 0,0 l/m 0 min 0 min 0,0 UV-I 0 W/m 20,6 km/h (4 Bft)
03.01.2014 17:30 11,6 C 9,4 C 80 % 1002,1 hPa 0,0 l/m 0 min 0 min 0,0 UV-I 0 W/m 20,6 km/h (4 Bft)
03.01.2014 17:32 11,6 C 9,4 C 80 % 1002,0 hPa 0,0 l/m 0 min 0 min 0,0 UV-I 0 W/m 20,6 km/h (4 Bft)
03.01.2014 17:34 11,6 C 9,4 C 80 % 1002,0 hPa 0,0 l/m 0 min 0 min 0,0 UV-I 0 W/m 10,3 km/h (2 Bft)
03.01.2014 17:36 11,6 C 9,4 C 80 % 1002,0 hPa 0,0 l/m 0 min 0 min 0,0 UV-I 0 W/m 15,4 km/h (3 Bft)
03.01.2014 17:38 11,6 C 9,4 C 79 % 1002,0 hPa 0,0 l/m 0 min 0 min 0,0 UV-I 0 W/m 12,9 km/h (3 Bft)
03.01.2014 17:40 11,6 C 9,4 C 79 % 1001,9 hPa 0,0 l/m 0 min 0 min 0,0 UV-I 0 W/m 23,2 km/h (4 Bft)
03.01.2014 17:42 11,5 C 9,4 C 80 % 1001,9 hPa 0,0 l/m 0 min 0 min 0,0 UV-I 0 W/m 10,3 km/h (2 Bft)
03.01.2014 17:44 11,5 C 9,4 C 80 % 1001,8 hPa 0,0 l/m 0 min 0 min 0,0 UV-I 0 W/m 12,9 km/h (3 Bft)
03.01.2014 17:46 11,4 C 9,4 C 80 % 1001,7 hPa 0,0 l/m 0 min 0 min 0,0 UV-I 0 W/m 15,4 km/h (3 Bft)
03.01.2014 17:48 11,4 C 8,9 C 80 % 1001,7 hPa 0,0 l/m 0 min 0 min 0,0 UV-I 0 W/m 25,7 km/h (4 Bft)
03.01.2014 17:50 11,4 C 8,9 C 80 % 1001,6 hPa 0,0 l/m 0 min 0 min 0,0 UV-I 0 W/m 5,1 km/h (1 Bft)
03.01.2014 17:52 11,3 C 8,9 C 80 % 1001,7 hPa 0,0 l/m 0 min 0 min 0,0 UV-I 0 W/m 20,6 km/h (4 Bft)
03.01.2014 17:54 11,3 C 8,9 C 80 % 1001,8 hPa 0,0 l/m 0 min 0 min 0,0 UV-I 0 W/m 12,9 km/h (3 Bft)
03.01.2014 17:56 11,3 C 8,9 C 80 % 1001,7 hPa 0,0 l/m 0 min 0 min 0,0 UV-I 0 W/m 18,0 km/h (3 Bft)
03.01.2014 17:58 11,3 C 8,9 C 80 % 1001,6 hPa 0,0 l/m 0 min 0 min 0,0 UV-I 0 W/m 23,2 km/h (4 Bft)
03.01.2014 18:00 11,3 C 8,9 C 80 % 1001,7 hPa 0,0 l/m 0 min 0 min 0,0 UV-I 0 W/m 12,9 km/h (3 Bft)
03.01.2014 18:02 11,3 C 8,9 C 80 % 1001,7 hPa 0,0 l/m 0 min 0 min 0,0 UV-I 0 W/m 12,9 km/h (3 Bft)
03.01.2014 18:04 11,2 C 8,9 C 80 % 1001,6 hPa 0,0 l/m 0 min 0 min 0,0 UV-I 0 W/m 7,7 km/h (2 Bft)
03.01.2014 18:06 11,2 C 8,9 C 80 % 1001,7 hPa 0,0 l/m 0 min 0 min 0,0 UV-I 0 W/m 10,3 km/h (2 Bft)
03.01.2014 18:08 11,2 C 8,9 C 81 % 1001,7 hPa 0,0 l/m 0 min 0 min 0,0 UV-I 0 W/m 28,3 km/h (4 Bft)
03.01.2014 18:10 11,2 C 8,9 C 81 % 1001,7 hPa 0,0 l/m 0 min 0 min 0,0 UV-I 0 W/m 18,0 km/h (3 Bft)
03.01.2014 18:12 11,2 C 8,9 C 81 % 1001,8 hPa 0,0 l/m 0 min 0 min 0,0 UV-I 0 W/m 15,4 km/h (3 Bft)
03.01.2014 18:14 11,2 C 8,9 C 81 % 1001,6 hPa 0,0 l/m 0 min 0 min 0,0 UV-I 0 W/m 23,2 km/h (4 Bft)
03.01.2014 18:16 11,2 C 9,4 C 81 % 1001,7 hPa 0,0 l/m 0 min 0 min 0,0 UV-I 0 W/m 15,4 km/h (3 Bft)
03.01.2014 18:18 11,2 C 9,4 C 80 % 1001,6 hPa 0,0 l/m 0 min 0 min 0,0 UV-I 0 W/m 18,0 km/h (3 Bft)
03.01.2014 18:20 11,2 C 9,4 C 80 % 1001,6 hPa 0,0 l/m 0 min 0 min 0,0 UV-I 0 W/m 20,6 km/h (4 Bft)
03.01.2014 18:22 11,3 C 9,4 C 80 % 1001,5 hPa 0,0 l/m 0 min 0 min 0,0 UV-I 0 W/m 20,6 km/h (4 Bft)
03.01.2014 18:24 11,3 C 9,4 C 80 % 1001,6 hPa 0,0 l/m 0 min 0 min 0,0 UV-I 0 W/m 20,6 km/h (4 Bft)
03.01.2014 18:26 11,3 C 9,4 C 80 % 1001,5 hPa 0,0 l/m 0 min 0 min 0,0 UV-I 0 W/m 15,4 km/h (3 Bft)
03.01.2014 18:28 11,3 C 9,4 C 80 % 1001,6 hPa 0,0 l/m 0 min 0 min 0,0 UV-I 0 W/m 12,9 km/h (3 Bft)
03.01.2014 18:30 11,3 C 9,4 C 80 % 1001,6 hPa 0,0 l/m 0 min 0 min 0,0 UV-I 0 W/m 33,5 km/h (5 Bft)
03.01.2014 18:32 11,4 C 9,4 C 80 % 1001,5 hPa 0,0 l/m 0 min 0 min 0,0 UV-I 0 W/m 18,0 km/h (3 Bft)
03.01.2014 18:34 11,4 C 9,4 C 80 % 1001,5 hPa 0,0 l/m 0 min 0 min 0,0 UV-I 0 W/m 12,9 km/h (3 Bft)
03.01.2014 18:36 11,4 C 9,4 C 80 % 1001,4 hPa 0,0 l/m 0 min 0 min 0,0 UV-I 0 W/m 28,3 km/h (4 Bft)
03.01.2014 18:38 11,4 C 10,0 C 80 % 1001,6 hPa 0,0 l/m 0 min 0 min 0,0 UV-I 0 W/m 23,2 km/h (4 Bft)
03.01.2014 18:40 11,5 C 10,0 C 79 % 1002,1 hPa 0,0 l/m 0 min 2 min 0,0 UV-I 0 W/m 43,8 km/h (6 Bft)
03.01.2014 18:42 11,1 C 5,0 C 77 % 1004,4 hPa 0,8 l/m 0 min 2 min 0,0 UV-I 0 W/m 59,2 km/h (7 Bft)
03.01.2014 18:44 10,2 C 2,8 C 75 % 1004,5 hPa 1,2 l/m 0 min 2 min 0,0 UV-I 0 W/m 30,9 km/h (5 Bft)
03.01.2014 18:46 9,3 C 3,3 C 76 % 1004,5 hPa 0,2 l/m 0 min 2 min 0,0 UV-I 0 W/m 38,6 km/h (5 Bft)
03.01.2014 18:48 8,7 C 3,3 C 78 % 1004,4 hPa 0,2 l/m 0 min 2 min 0,0 UV-I 0 W/m 33,5 km/h (5 Bft)
03.01.2014 18:50 8,1 C 3,3 C 80 % 1004,5 hPa 0,2 l/m 0 min 2 min 0,0 UV-I 0 W/m 25,7 km/h (4 Bft)
03.01.2014 18:52 7,6 C 3,3 C 81 % 1004,5 hPa 0,4 l/m 0 min 2 min 0,0 UV-I 0 W/m 23,2 km/h (4 Bft)
03.01.2014 18:54 7,3 C 3,9 C 83 % 1004,7 hPa 0,8 l/m 0 min 2 min 0,0 UV-I 0 W/m 20,6 km/h (4 Bft)
03.01.2014 18:56 7,0 C 3,9 C 84 % 1004,6 hPa 0,2 l/m 0 min 2 min 0,0 UV-I 0 W/m 23,2 km/h (4 Bft)
03.01.2014 18:58 6,8 C 3,9 C 85 % 1004,7 hPa 0,4 l/m 0 min 2 min 0,0 UV-I 0 W/m 18,0 km/h (3 Bft)
03.01.2014 19:00 6,6 C 3,9 C 86 % 1004,8 hPa 0,2 l/m 0 min 2 min 0,0 UV-I 0 W/m 18,0 km/h (3 Bft)
03.01.2014 19:02 6,4 C 3,9 C 87 % 1004,8 hPa 0,2 l/m 0 min 2 min 0,0 UV-I 0 W/m 18,0 km/h (3 Bft)
03.01.2014 19:04 6,4 C 3,9 C 88 % 1004,7 hPa 0,2 l/m 0 min 2 min 0,0 UV-I 0 W/m 23,2 km/h (4 Bft)
03.01.2014 19:06 6,3 C 3,9 C 88 % 1004,5 hPa 0,4 l/m 0 min 2 min 0,0 UV-I 0 W/m 12,9 km/h (3 Bft)
03.01.2014 19:08 6,2 C 4,4 C 89 % 1004,5 hPa 0,0 l/m 0 min 2 min 0,0 UV-I 0 W/m 20,6 km/h (4 Bft)
03.01.2014 19:10 6,2 C 4,4 C 90 % 1004,1 hPa 0,2 l/m 0 min 2 min 0,0 UV-I 0 W/m 10,3 km/h (2 Bft)
03.01.2014 19:12 6,1 C 4,4 C 90 % 1003,8 hPa 0,2 l/m 0 min 2 min 0,0 UV-I 0 W/m 15,4 km/h (3 Bft)
03.01.2014 19:14 6,1 C 4,4 C 90 % 1003,8 hPa 0,0 l/m 0 min 2 min 0,0 UV-I 0 W/m 18,0 km/h (3 Bft)
03.01.2014 19:16 6,1 C 4,4 C 91 % 1004,0 hPa 0,0 l/m 0 min 2 min 0,0 UV-I 0 W/m 18,0 km/h (3 Bft)
03.01.2014 19:18 6,1 C 4,4 C 91 % 1004,0 hPa 0,0 l/m 0 min 0 min 0,0 UV-I 0 W/m 10,3 km/h (2 Bft)
03.01.2014 19:20 6,1 C 4,4 C 91 % 1004,1 hPa 0,0 l/m 0 min 0 min 0,0 UV-I 0 W/m 15,4 km/h (3 Bft)
03.01.2014 19:22 6,1 C 4,4 C 92 % 1004,0 hPa 0,0 l/m 0 min 0 min 0,0 UV-I 0 W/m 15,4 km/h (3 Bft)
03.01.2014 19:24 6,2 C 4,4 C 92 % 1004,0 hPa 0,0 l/m 0 min 0 min 0,0 UV-I 0 W/m 18,0 km/h (3 Bft)
03.01.2014 19:26 6,2 C 4,4 C 92 % 1004,0 hPa 0,0 l/m 0 min 0 min 0,0 UV-I 0 W/m 25,7 km/h (4 Bft)
03.01.2014 19:28 6,2 C 4,4 C 92 % 1004,0 hPa 0,0 l/m 0 min 0 min 0,0 UV-I 0 W/m 15,4 km/h (3 Bft)
03.01.2014 19:30 6,2 C 4,4 C 92 % 1004,1 hPa 0,0 l/m 0 min 0 min 0,0 UV-I 0 W/m 10,3 km/h (2 Bft)
03.01.2014 19:32 6,2 C 4,4 C 92 % 1004,0 hPa 0,0 l/m 0 min 0 min 0,0 UV-I 0 W/m 12,9 km/h (3 Bft)
03.01.2014 19:34 6,3 C 4,4 C 92 % 1004,1 hPa 0,0 l/m 0 min 0 min 0,0 UV-I 0 W/m 12,9 km/h (3 Bft)
03.01.2014 19:36 6,3 C 4,4 C 93 % 1004,2 hPa 0,0 l/m 0 min 0 min 0,0 UV-I 0 W/m 10,3 km/h (2 Bft)
03.01.2014 19:38 6,3 C 4,4 C 93 % 1004,3 hPa 0,0 l/m 0 min 0 min 0,0 UV-I 0 W/m 15,4 km/h (3 Bft)
03.01.2014 19:40 6,3 C 4,4 C 93 % 1004,4 hPa 0,0 l/m 0 min 0 min 0,0 UV-I 0 W/m 18,0 km/h (3 Bft)
03.01.2014 19:42 6,4 C 4,4 C 93 % 1004,5 hPa 0,0 l/m 0 min 0 min 0,0 UV-I 0 W/m 10,3 km/h (2 Bft)
03.01.2014 19:44 6,4 C 4,4 C 93 % 1004,6 hPa 0,0 l/m 0 min 0 min 0,0 UV-I 0 W/m 18,0 km/h (3 Bft)
03.01.2014 19:46 6,4 C 4,4 C 93 % 1004,4 hPa 0,0 l/m 0 min 0 min 0,0 UV-I 0 W/m 10,3 km/h (2 Bft)
03.01.2014 19:48 6,4 C 4,4 C 93 % 1004,4 hPa 0,0 l/m 0 min 0 min 0,0 UV-I 0 W/m 23,2 km/h (4 Bft)
03.01.2014 19:50 6,4 C 4,4 C 93 % 1004,6 hPa 0,0 l/m 0 min 0 min 0,0 UV-I 0 W/m 15,4 km/h (3 Bft)
03.01.2014 19:52 6,4 C 4,4 C 93 % 1004,6 hPa 0,0 l/m 0 min 0 min 0,0 UV-I 0 W/m 12,9 km/h (3 Bft)
03.01.2014 19:54 6,4 C 4,4 C 93 % 1004,7 hPa 0,0 l/m 0 min 0 min 0,0 UV-I 0 W/m 18,0 km/h (3 Bft)
03.01.2014 19:56 6,4 C 4,4 C 93 % 1004,7 hPa 0,0 l/m 0 min 0 min 0,0 UV-I 0 W/m 10,3 km/h (2 Bft)
03.01.2014 19:58 6,3 C 4,4 C 93 % 1004,8 hPa 0,0 l/m 0 min 0 min 0,0 UV-I 0 W/m 10,3 km/h (2 Bft)
03.01.2014 20:00 6,3 C 4,4 C 93 % 1004,8 hPa 0,0 l/m 0 min 0 min 0,0 UV-I 0 W/m 10,3 km/h (2 Bft)
03.01.2014 20:02 6,3 C 4,4 C 93 % 1004,8 hPa 0,0 l/m 0 min 0 min 0,0 UV-I 0 W/m 12,9 km/h (3 Bft)
03.01.2014 20:04 6,3 C 4,4 C 93 % 1004,9 hPa 0,0 l/m 0 min 0 min 0,0 UV-I 0 W/m 12,9 km/h (3 Bft)
03.01.2014 20:06 6,3 C 4,4 C 93 % 1004,8 hPa 0,0 l/m 0 min 0 min 0,0 UV-I 0 W/m 10,3 km/h (2 Bft)
03.01.2014 20:08 6,3 C 4,4 C 93 % 1004,8 hPa 0,0 l/m 0 min 0 min 0,0 UV-I 0 W/m 10,3 km/h (2 Bft)
03.01.2014 20:10 6,3 C 4,4 C 93 % 1004,9 hPa 0,0 l/m 0 min 0 min 0,0 UV-I 0 W/m 10,3 km/h (2 Bft)
03.01.2014 20:12 6,3 C 4,4 C 93 % 1004,8 hPa 0,0 l/m 0 min 0 min 0,0 UV-I 0 W/m 2,6 km/h (1 Bft)
03.01.2014 20:14 6,3 C 4,4 C 93 % 1004,7 hPa 0,0 l/m 0 min 0 min 0,0 UV-I 0 W/m 12,9 km/h (3 Bft)
03.01.2014 20:16 6,3 C 4,4 C 93 % 1004,8 hPa 0,0 l/m 0 min 0 min 0,0 UV-I 0 W/m 0,0 km/h (0 Bft)
03.01.2014 20:18 6,3 C 4,4 C 93 % 1004,8 hPa 0,0 l/m 0 min 0 min 0,0 UV-I 0 W/m 12,9 km/h (3 Bft)
03.01.2014 20:20 6,4 C 4,4 C 93 % 1004,8 hPa 0,0 l/m 0 min 0 min 0,0 UV-I 0 W/m 5,1 km/h (1 Bft)
03.01.2014 20:22 6,3 C 4,4 C 93 % 1004,8 hPa 0,0 l/m 0 min 0 min 0,0 UV-I 0 W/m 7,7 km/h (2 Bft)
03.01.2014 20:24 6,4 C 4,4 C 93 % 1004,8 hPa 0,0 l/m 0 min 0 min 0,0 UV-I 0 W/m 15,4 km/h (3 Bft)
03.01.2014 20:26 6,4 C 4,4 C 93 % 1004,8 hPa 0,0 l/m 0 min 0 min 0,0 UV-I 0 W/m 15,4 km/h (3 Bft)
03.01.2014 20:28 6,4 C 4,4 C 94 % 1004,9 hPa 0,0 l/m 0 min 0 min 0,0 UV-I 0 W/m 10,3 km/h (2 Bft)
03.01.2014 20:30 6,4 C 4,4 C 94 % 1004,8 hPa 0,0 l/m 0 min 0 min 0,0 UV-I 0 W/m 10,3 km/h (2 Bft)
03.01.2014 20:32 6,4 C 4,4 C 94 % 1004,9 hPa 0,0 l/m 0 min 0 min 0,0 UV-I 0 W/m 10,3 km/h (2 Bft)
03.01.2014 20:34 6,4 C 5,0 C 94 % 1004,9 hPa 0,0 l/m 0 min 0 min 0,0 UV-I 0 W/m 15,4 km/h (3 Bft)
03.01.2014 20:36 6,4 C 5,0 C 94 % 1004,8 hPa 0,0 l/m 0 min 0 min 0,0 UV-I 0 W/m 12,9 km/h (3 Bft)
03.01.2014 20:38 6,4 C 5,0 C 94 % 1004,9 hPa 0,0 l/m 0 min 0 min 0,0 UV-I 0 W/m 7,7 km/h (2 Bft)
03.01.2014 20:40 6,5 C 4,4 C 94 % 1004,9 hPa 0,0 l/m 0 min 0 min 0,0 UV-I 0 W/m 2,6 km/h (1 Bft)
03.01.2014 20:42 6,5 C 4,4 C 94 % 1004,9 hPa 0,0 l/m 0 min 0 min 0,0 UV-I 0 W/m 10,3 km/h (2 Bft)
03.01.2014 20:44 6,5 C 4,4 C 94 % 1004,9 hPa 0,0 l/m 0 min 0 min 0,0 UV-I 0 W/m 10,3 km/h (2 Bft)
03.01.2014 20:46 6,5 C 4,4 C 94 % 1004,9 hPa 0,0 l/m 0 min 0 min 0,0 UV-I 0 W/m 7,7 km/h (2 Bft)
03.01.2014 20:48 6,5 C 4,4 C 94 % 1005,0 hPa 0,0 l/m 0 min 0 min 0,0 UV-I 0 W/m 7,7 km/h (2 Bft)
03.01.2014 20:50 6,5 C 5,0 C 94 % 1004,9 hPa 0,0 l/m 0 min 0 min 0,0 UV-I 0 W/m 18,0 km/h (3 Bft)
03.01.2014 20:52 6,6 C 5,0 C 94 % 1004,9 hPa 0,0 l/m 0 min 0 min 0,0 UV-I 0 W/m 20,6 km/h (4 Bft)
03.01.2014 20:54 6,6 C 5,0 C 94 % 1005,0 hPa 0,0 l/m 0 min 0 min 0,0 UV-I 0 W/m 15,4 km/h (3 Bft)
03.01.2014 20:56 6,6 C 5,0 C 94 % 1005,0 hPa 0,0 l/m 0 min 0 min 0,0 UV-I 0 W/m 7,7 km/h (2 Bft)
03.01.2014 20:58 6,7 C 5,0 C 94 % 1005,0 hPa 0,0 l/m 0 min 0 min 0,0 UV-I 0 W/m 12,9 km/h (3 Bft)
03.01.2014 21:00 6,7 C 5,0 C 94 % 1005,0 hPa 0,0 l/m 0 min 0 min 0,0 UV-I 0 W/m 10,3 km/h (2 Bft)
03.01.2014 21:02 6,7 C 5,0 C 94 % 1005,1 hPa 0,0 l/m 0 min 0 min 0,0 UV-I 0 W/m 12,9 km/h (3 Bft)
03.01.2014 21:04 6,8 C 5,0 C 94 % 1005,1 hPa 0,0 l/m 0 min 0 min 0,0 UV-I 0 W/m 12,9 km/h (3 Bft)
03.01.2014 21:06 6,8 C 5,0 C 94 % 1005,1 hPa 0,0 l/m 0 min 0 min 0,0 UV-I 0 W/m 15,4 km/h (3 Bft)
03.01.2014 21:08 6,9 C 5,0 C 94 % 1005,1 hPa 0,0 l/m 0 min 0 min 0,0 UV-I 0 W/m 12,9 km/h (3 Bft)
03.01.2014 21:10 6,9 C 5,0 C 94 % 1005,1 hPa 0,0 l/m 0 min 0 min 0,0 UV-I 0 W/m 12,9 km/h (3 Bft)
03.01.2014 21:12 6,9 C 5,0 C 94 % 1005,1 hPa 0,0 l/m 0 min 0 min 0,0 UV-I 0 W/m 18,0 km/h (3 Bft)
03.01.2014 21:14 7,0 C 5,0 C 94 % 1005,1 hPa 0,0 l/m 0 min 0 min 0,0 UV-I 0 W/m 20,6 km/h (4 Bft)
03.01.2014 21:16 7,1 C 5,6 C 94 % 1005,1 hPa 0,0 l/m 0 min 0 min 0,0 UV-I 0 W/m 15,4 km/h (3 Bft)
03.01.2014 21:18 7,1 C 5,6 C 94 % 1005,1 hPa 0,0 l/m 0 min 0 min 0,0 UV-I 0 W/m 25,7 km/h (4 Bft)
03.01.2014 21:20 7,2 C 5,6 C 94 % 1005,2 hPa 0,0 l/m 0 min 0 min 0,0 UV-I 0 W/m 20,6 km/h (4 Bft)
03.01.2014 21:22 7,2 C 5,6 C 94 % 1005,2 hPa 0,0 l/m 0 min 0 min 0,0 UV-I 0 W/m 23,2 km/h (4 Bft)
03.01.2014 21:24 7,3 C 5,6 C 94 % 1005,2 hPa 0,0 l/m 0 min 0 min 0,0 UV-I 0 W/m 20,6 km/h (4 Bft)
03.01.2014 21:26 7,3 C 5,6 C 94 % 1005,2 hPa 0,0 l/m 0 min 0 min 0,0 UV-I 0 W/m 18,0 km/h (3 Bft)
03.01.2014 21:28 7,4 C 5,6 C 94 % 1005,2 hPa 0,0 l/m 0 min 0 min 0,0 UV-I 0 W/m 20,6 km/h (4 Bft)
03.01.2014 21:30 7,4 C 5,6 C 93 % 1005,3 hPa 0,0 l/m 0 min 0 min 0,0 UV-I 0 W/m 12,9 km/h (3 Bft)
03.01.2014 21:32 7,5 C 5,6 C 93 % 1005,2 hPa 0,0 l/m 0 min 0 min 0,0 UV-I 0 W/m 23,2 km/h (4 Bft)
03.01.2014 21:34 7,6 C 5,6 C 93 % 1005,2 hPa 0,0 l/m 0 min 0 min 0,0 UV-I 0 W/m 15,4 km/h (3 Bft)
03.01.2014 21:36 7,6 C 5,6 C 93 % 1005,3 hPa 0,0 l/m 0 min 0 min 0,0 UV-I 0 W/m 12,9 km/h (3 Bft)
03.01.2014 21:38 7,6 C 5,6 C 92 % 1005,5 hPa 0,0 l/m 0 min 0 min 0,0 UV-I 0 W/m 23,2 km/h (4 Bft)
03.01.2014 21:40 7,7 C 5,6 C 92 % 1005,7 hPa 0,0 l/m 0 min 0 min 0,0 UV-I 0 W/m 28,3 km/h (4 Bft)
03.01.2014 21:42 7,7 C 6,1 C 92 % 1005,6 hPa 0,0 l/m 0 min 0 min 0,0 UV-I 0 W/m 20,6 km/h (4 Bft)
03.01.2014 21:44 7,7 C 5,6 C 91 % 1005,5 hPa 0,0 l/m 0 min 0 min 0,0 UV-I 0 W/m 28,3 km/h (4 Bft)
03.01.2014 21:46 7,8 C 6,1 C 91 % 1005,6 hPa 0,0 l/m 0 min 0 min 0,0 UV-I 0 W/m 28,3 km/h (4 Bft)
03.01.2014 21:48 7,8 C 6,1 C 91 % 1005,5 hPa 0,0 l/m 0 min 0 min 0,0 UV-I 0 W/m 12,9 km/h (3 Bft)
03.01.2014 21:50 7,9 C 6,1 C 90 % 1005,6 hPa 0,0 l/m 0 min 0 min 0,0 UV-I 0 W/m 23,2 km/h (4 Bft)
03.01.2014 21:52 7,9 C 6,1 C 90 % 1005,7 hPa 0,0 l/m 0 min 0 min 0,0 UV-I 0 W/m 43,8 km/h (6 Bft)
03.01.2014 21:54 8,0 C 6,1 C 89 % 1005,8 hPa 0,0 l/m 0 min 0 min 0,0 UV-I 0 W/m 25,7 km/h (4 Bft)
03.01.2014 21:56 8,1 C 6,1 C 88 % 1005,8 hPa 0,0 l/m 0 min 0 min 0,0 UV-I 0 W/m 23,2 km/h (4 Bft)
03.01.2014 21:58 8,2 C 6,1 C 88 % 1005,8 hPa 0,0 l/m 0 min 0 min 0,0 UV-I 0 W/m 23,2 km/h (4 Bft)
03.01.2014 22:00 8,2 C 6,1 C 87 % 1005,9 hPa 0,0 l/m 0 min 0 min 0,0 UV-I 0 W/m 23,2 km/h (4 Bft)
03.01.2014 22:02 8,2 C 6,1 C 86 % 1005,9 hPa 0,0 l/m 0 min 0 min 0,0 UV-I 0 W/m 30,9 km/h (5 Bft)
03.01.2014 22:04 8,3 C 6,1 C 86 % 1005,9 hPa 0,0 l/m 0 min 0 min 0,0 UV-I 0 W/m 12,9 km/h (3 Bft)
03.01.2014 22:06 8,3 C 6,1 C 85 % 1005,9 hPa 0,0 l/m 0 min 0 min 0,0 UV-I 0 W/m 18,0 km/h (3 Bft)
03.01.2014 22:08 8,3 C 6,1 C 85 % 1005,9 hPa 0,0 l/m 0 min 0 min 0,0 UV-I 0 W/m 20,6 km/h (4 Bft)
03.01.2014 22:10 8,3 C 6,1 C 85 % 1005,9 hPa 0,0 l/m 0 min 0 min 0,0 UV-I 0 W/m 20,6 km/h (4 Bft)
03.01.2014 22:12 8,3 C 6,1 C 85 % 1006,1 hPa 0,0 l/m 0 min 0 min 0,0 UV-I 0 W/m 23,2 km/h (4 Bft)
03.01.2014 22:14 8,4 C 6,1 C 84 % 1006,0 hPa 0,0 l/m 0 min 0 min 0,0 UV-I 0 W/m 36,0 km/h (5 Bft)
03.01.2014 22:16 8,4 C 6,7 C 83 % 1006,6 hPa 0,0 l/m 0 min 0 min 0,0 UV-I 0 W/m 28,3 km/h (4 Bft)
03.01.2014 22:18 8,5 C 6,7 C 83 % 1006,1 hPa 0,0 l/m 0 min 0 min 0,0 UV-I 0 W/m 20,6 km/h (4 Bft)
03.01.2014 22:20 8,6 C 6,7 C 82 % 1006,3 hPa 0,0 l/m 0 min 2 min 0,0 UV-I 0 W/m 33,5 km/h (5 Bft)
03.01.2014 22:22 8,6 C 6,1 C 82 % 1006,5 hPa 0,0 l/m 0 min 2 min 0,0 UV-I 0 W/m 25,7 km/h (4 Bft)
03.01.2014 22:24 8,7 C 6,1 C 82 % 1006,4 hPa 0,0 l/m 0 min 2 min 0,0 UV-I 0 W/m 25,7 km/h (4 Bft)
03.01.2014 22:26 8,7 C 6,1 C 82 % 1006,6 hPa 0,0 l/m 0 min 2 min 0,0 UV-I 0 W/m 23,2 km/h (4 Bft)
03.01.2014 22:28 8,7 C 6,1 C 82 % 1006,5 hPa 0,0 l/m 0 min 2 min 0,0 UV-I 0 W/m 54,1 km/h (7 Bft)
03.01.2014 22:30 8,7 C 6,1 C 81 % 1006,8 hPa 0,0 l/m 0 min 2 min 0,0 UV-I 0 W/m 33,5 km/h (5 Bft)
03.01.2014 22:32 8,7 C 6,1 C 81 % 1006,5 hPa 0,0 l/m 0 min 2 min 0,0 UV-I 0 W/m 38,6 km/h (5 Bft)
03.01.2014 22:34 8,6 C 6,1 C 81 % 1006,7 hPa 0,0 l/m 0 min 2 min 0,0 UV-I 0 W/m 25,7 km/h (4 Bft)
03.01.2014 22:36 8,6 C 6,1 C 81 % 1006,8 hPa 0,0 l/m 0 min 2 min 0,0 UV-I 0 W/m 38,6 km/h (5 Bft)
03.01.2014 22:38 8,5 C 6,1 C 80 % 1006,9 hPa 0,0 l/m 0 min 2 min 0,0 UV-I 0 W/m 46,3 km/h (6 Bft)
03.01.2014 22:40 8,4 C 6,1 C 80 % 1006,8 hPa 0,0 l/m 0 min 2 min 0,0 UV-I 0 W/m 28,3 km/h (4 Bft)
03.01.2014 22:42 8,4 C 6,1 C 80 % 1006,7 hPa 0,0 l/m 0 min 2 min 0,0 UV-I 0 W/m 36,0 km/h (5 Bft)
03.01.2014 22:44 8,3 C 6,1 C 80 % 1006,7 hPa 0,0 l/m 0 min 2 min 0,0 UV-I 0 W/m 43,8 km/h (6 Bft)
03.01.2014 22:46 8,3 C 6,1 C 80 % 1006,6 hPa 0,0 l/m 0 min 2 min 0,0 UV-I 0 W/m 30,9 km/h (5 Bft)
03.01.2014 22:48 8,2 C 6,1 C 80 % 1006,7 hPa 0,0 l/m 0 min 2 min 0,0 UV-I 0 W/m 23,2 km/h (4 Bft)
03.01.2014 22:50 8,2 C 6,1 C 80 % 1006,6 hPa 0,0 l/m 0 min 2 min 0,0 UV-I 0 W/m 23,2 km/h (4 Bft)
03.01.2014 22:52 8,2 C 6,1 C 81 % 1006,7 hPa 0,0 l/m 0 min 2 min 0,0 UV-I 0 W/m 20,6 km/h (4 Bft)
03.01.2014 22:54 8,1 C 5,6 C 81 % 1006,8 hPa 0,0 l/m 0 min 0 min 0,0 UV-I 0 W/m 30,9 km/h (5 Bft)
03.01.2014 22:56 8,1 C 5,6 C 82 % 1006,7 hPa 0,0 l/m 0 min 2 min 0,0 UV-I 0 W/m 18,0 km/h (3 Bft)
03.01.2014 22:58 8,0 C 5,6 C 82 % 1006,7 hPa 0,0 l/m 0 min 0 min 0,0 UV-I 0 W/m 25,7 km/h (4 Bft)
03.01.2014 23:00 7,9 C 5,6 C 82 % 1006,6 hPa 0,0 l/m 0 min 0 min 0,0 UV-I 0 W/m 18,0 km/h (3 Bft)
03.01.2014 23:02 7,9 C 5,6 C 83 % 1006,7 hPa 0,0 l/m 0 min 0 min 0,0 UV-I 0 W/m 30,9 km/h (5 Bft)
03.01.2014 23:04 7,9 C 5,6 C 83 % 1006,6 hPa 0,0 l/m 0 min 0 min 0,0 UV-I 0 W/m 10,3 km/h (2 Bft)
03.01.2014 23:06 7,8 C 5,6 C 83 % 1006,6 hPa 0,0 l/m 0 min 0 min 0,0 UV-I 0 W/m 15,4 km/h (3 Bft)
03.01.2014 23:08 7,8 C 5,6 C 83 % 1006,6 hPa 0,0 l/m 0 min 0 min 0,0 UV-I 0 W/m 7,7 km/h (2 Bft)
03.01.2014 23:10 7,7 C 5,6 C 83 % 1006,7 hPa 0,0 l/m 0 min 0 min 0,0 UV-I 0 W/m 10,3 km/h (2 Bft)
03.01.2014 23:12 7,7 C 5,6 C 84 % 1006,8 hPa 0,0 l/m 0 min 0 min 0,0 UV-I 0 W/m 15,4 km/h (3 Bft)
03.01.2014 23:14 7,6 C 5,6 C 84 % 1006,9 hPa 0,0 l/m 0 min 0 min 0,0 UV-I 0 W/m 18,0 km/h (3 Bft)
03.01.2014 23:16 7,6 C 5,6 C 84 % 1006,9 hPa 0,0 l/m 0 min 0 min 0,0 UV-I 0 W/m 12,9 km/h (3 Bft)
03.01.2014 23:18 7,6 C 5,6 C 85 % 1006,9 hPa 0,0 l/m 0 min 0 min 0,0 UV-I 0 W/m 18,0 km/h (3 Bft)
03.01.2014 23:20 7,5 C 5,6 C 85 % 1006,9 hPa 0,0 l/m 0 min 0 min 0,0 UV-I 0 W/m 25,7 km/h (4 Bft)
03.01.2014 23:22 7,5 C 5,6 C 85 % 1006,8 hPa 0,0 l/m 0 min 0 min 0,0 UV-I 0 W/m 23,2 km/h (4 Bft)
03.01.2014 23:24 7,4 C 5,6 C 85 % 1006,9 hPa 0,0 l/m 0 min 0 min 0,0 UV-I 0 W/m 7,7 km/h (2 Bft)
03.01.2014 23:26 7,4 C 5,6 C 86 % 1006,8 hPa 0,0 l/m 0 min 0 min 0,0 UV-I 0 W/m 15,4 km/h (3 Bft)
03.01.2014 23:28 7,4 C 5,6 C 86 % 1006,8 hPa 0,0 l/m 0 min 0 min 0,0 UV-I 0 W/m 12,9 km/h (3 Bft)
03.01.2014 23:30 7,4 C 5,6 C 86 % 1006,8 hPa 0,0 l/m 0 min 0 min 0,0 UV-I 0 W/m 12,9 km/h (3 Bft)
03.01.2014 23:32 7,4 C 5,6 C 86 % 1006,8 hPa 0,0 l/m 0 min 0 min 0,0 UV-I 0 W/m 23,2 km/h (4 Bft)
03.01.2014 23:34 7,4 C 5,6 C 86 % 1006,8 hPa 0,0 l/m 0 min 0 min 0,0 UV-I 0 W/m 7,7 km/h (2 Bft)
03.01.2014 23:36 7,3 C 5,6 C 86 % 1006,9 hPa 0,0 l/m 0 min 0 min 0,0 UV-I 0 W/m 20,6 km/h (4 Bft)
03.01.2014 23:38 7,3 C 5,6 C 86 % 1006,8 hPa 0,0 l/m 0 min 0 min 0,0 UV-I 0 W/m 15,4 km/h (3 Bft)
03.01.2014 23:40 7,3 C 5,6 C 86 % 1006,9 hPa 0,0 l/m 0 min 0 min 0,0 UV-I 0 W/m 18,0 km/h (3 Bft)
03.01.2014 23:42 7,3 C 5,6 C 86 % 1006,9 hPa 0,0 l/m 0 min 0 min 0,0 UV-I 0 W/m 18,0 km/h (3 Bft)
03.01.2014 23:44 7,3 C 5,6 C 87 % 1006,9 hPa 0,0 l/m 0 min 0 min 0,0 UV-I 0 W/m 23,2 km/h (4 Bft)
03.01.2014 23:46 7,3 C 5,6 C 87 % 1006,9 hPa 0,0 l/m 0 min 0 min 0,0 UV-I 0 W/m 15,4 km/h (3 Bft)
03.01.2014 23:48 7,3 C 5,6 C 87 % 1006,9 hPa 0,0 l/m 0 min 0 min 0,0 UV-I 0 W/m 7,7 km/h (2 Bft)
03.01.2014 23:50 7,3 C 5,0 C 87 % 1006,9 hPa 0,0 l/m 0 min 0 min 0,0 UV-I 0 W/m 18,0 km/h (3 Bft)
03.01.2014 23:52 7,3 C 5,0 C 87 % 1006,9 hPa 0,0 l/m 0 min 0 min 0,0 UV-I 0 W/m 5,1 km/h (1 Bft)
03.01.2014 23:54 7,2 C 5,6 C 87 % 1007,0 hPa 0,0 l/m 0 min 0 min 0,0 UV-I 0 W/m 20,6 km/h (4 Bft)
03.01.2014 23:56 7,3 C 5,6 C 87 % 1007,0 hPa 0,0 l/m 0 min 0 min 0,0 UV-I 0 W/m 12,9 km/h (3 Bft)
03.01.2014 23:58 7,3 C 5,6 C 87 % 1007,2 hPa 0,0 l/m 0 min 0 min 0,0 UV-I 0 W/m 18,0 km/h (3 Bft)
_ Min-Zeit 01:28 00:12 13:46 08:18 - - - - - 00:02
Minimum _ 4,4 C 2,8 C 75 % 1001,0 hPa - - - - - 0,0 km/h (0 Bft)
_ Max-Zeit 13:24 13:24 10:12 23:58 18:44 11:46 07:08 00:00 12:40 18:42
Maximum _ 12,9 C 11,1 C 96 % 1007,2 hPa 1,2 l/m 2 min 2 min 0,0 UV-I 265 W/m 59,2 km/h
W-NW (7 Bft)
Durchschnitt _ 8,2 C 6,3 C 88 % 1003,6 hPa #6,4 l/m #2:06 h #2:20 h 0,0 UV-I 76 W/m 17,8 km/h (3 Bft)
© 2014 W. Hausmann